GFSNGP_sfc_30mbdewp_000.txt.gz
Dewpoint
27 23 20 19 19 20 19 21 20 23 22 23 28 29 34 35 35 36 37 37 37 36 35 32 31 29 28 29 32 36 37 34 34 30 27 27 27 25 24 22 19 18 18 20
28 23 22 22 21 20 19 19 20 22 23 27 33 34 35 35 36 37 36 35 34 34 30 28 27 24 22 24 26 32 30 32 32 30 28 28 27 25 22 20 18 18 20 20
28 31 31 29 29 23 22 22 23 24 26 32 34 34 34 36 37 36 34 33 33 30 27 24 20 19 19 20 22 27 28 29 32 35 33 32 27 24 19 18 19 20 21 21
29 32 23 26 25 25 24 24 24 25 30 34 35 35 34 38 36 33 33 32 29 24 22 22 21 18 18 18 19 21 22 26 32 33 32 29 27 25 21 18 19 20 21 21
31 27 25 26 28 28 27 27 28 33 35 36 35 34 33 34 34 32 31 27 21 21 21 19 17 18 18 19 19 20 20 28 29 33 27 27 26 25 20 18 19 21 22 25
31 27 22 26 28 31 31 27 37 38 37 37 35 32 32 34 32 28 23 20 19 18 16 15 17 17 17 18 18 21 30 30 28 25 26 27 27 24 18 19 20 25 25 26
30 28 30 28 30 32 28 33 40 40 38 37 34 36 36 31 26 22 20 18 18 15 14 15 16 17 18 18 18 26 28 30 32 30 26 24 23 17 19 19 20 25 25 25
31 28 26 33 31 31 38 41 41 39 38 37 36 37 29 25 22 20 18 16 14 14 14 16 17 18 19 18 23 28 30 30 29 27 25 20 18 19 19 19 22 22 22 22
33 33 34 35 36 40 43 41 40 40 38 36 35 31 26 22 21 19 17 14 15 15 16 17 18 19 19 21 24 26 27 26 26 22 21 21 19 18 18 19 21 21 19 18
33 33 32 34 37 42 42 41 39 38 37 36 30 26 23 21 20 18 16 16 16 17 16 17 19 20 23 24 26 26 24 25 23 21 22 22 20 18 19 22 21 20 18 17
31 33 34 39 41 41 40 39 39 37 36 28 25 23 22 19 18 18 17 18 18 17 17 20 20 22 25 25 27 25 25 24 24 25 25 22 21 20 21 22 19 18 18 17
34 37 39 40 40 39 39 38 37 35 28 25 24 21 18 18 18 17 17 16 17 18 21 21 23 25 26 25 26 28 27 26 26 25 25 23 22 22 22 21 19 18 17 17
33 41 42 42 40 38 35 31 29 27 25 22 19 18 18 16 16 18 18 19 22 23 23 26 28 28 28 26 28 27 27 27 26 25 26 25 25 25 23 24 22 21 19 19
40 41 39 39 37 37 31 28 26 24 19 17 17 17 17 19 20 20 21 24 24 24 26 28 29 28 28 30 26 26 27 25 26 28 28 27 23 23 24 24 23 23 25 22
38 39 38 36 36 29 27 23 19 15 16 17 18 18 22 21 22 23 25 26 28 29 28 27 29 30 30 29 27 26 25 24 24 24 25 25 24 26 26 25 23 23 21 22
37 35 32 29 26 24 20 17 16 17 18 19 20 25 25 25 25 26 28 28 29 28 31 31 30 30 30 30 25 25 24 25 24 22 25 26 27 25 24 25 23 22 21 21
35 31 29 27 22 18 17 18 20 24 23 23 27 29 28 28 29 29 28 29 29 30 31 33 32 30 30 29 27 25 24 26 27 26 25 28 25 24 26 25 24 23 22 21
33 31 27 19 17 18 21 26 27 27 27 29 29 29 29 29 28 28 29 30 30 31 31 33 33 30 30 29 27 26 24 23 27 28 28 26 27 23 23 25 25 24 24 22
23 19 18 18 21 27 28 28 29 30 30 29 30 30 30 30 30 30 30 28 28 29 30 34 34 30 29 27 26 24 25 27 25 27 27 28 25 26 26 26 25 24 23 23
18 18 22 20 24 25 26 29 30 31 30 30 30 30 30 30 30 28 29 28 28 30 33 34 32 30 28 28 25 24 25 27 26 26 27 27 25 25 26 24 25 25 24 24
23 24 25 27 27 28 29 29 29 29 30 31 31 30 30 29 29 28 29 27 28 31 34 34 33 30 30 29 26 26 27 28 27 27 27 26 26 25 26 26 26 26 26 24
25 24 25 27 27 28 30 31 32 32 31 31 32 31 30 28 29 28 28 29 31 34 33 33 33 31 30 25 24 28 29 26 25 27 27 27 26 27 26 25 25 25 25 25
27 28 29 30 29 30 33 33 32 32 31 31 31 31 31 30 30 29 27 30 31 33 32 33 34 32 30 27 27 28 29 27 24 23 26 27 26 24 24 24 25 25 24 24
29 30 30 31 33 32 30 31 32 33 33 33 32 32 32 31 31 30 30 31 31 33 32 32 33 31 28 28 28 28 28 28 28 27 27 27 27 27 26 23 23 23 25 25
29 30 32 32 32 32 32 32 30 30 30 32 32 31 31 33 31 29 31 32 32 32 32 32 32 31 30 28 28 28 28 28 28 27 27 27 27 27 27 27 26 24 26 26
28 28 28 28 28 29 30 30 30 31 32 31 30 30 32 33 34 33 33 32 32 32 32 32 32 31 30 29 28 28 29 29 27 26 26 25 25 26 25 25 26 26 26 26
28 28 29 29 30 30 29 29 31 32 32 31 30 30 31 31 31 32 32 32 32 32 32 32 32 32 31 30 29 29 30 29 27 27 27 26 26 26 25 25 24 24 24 25

GFSNGP_sfc_30mbdewp_006.txt.gz
Dewpoint
25 27 26 23 23 23 24 26 23 22 26 34 34 35 37 37 36 34 34 33 33 32 28 21 20 19 19 20 20 22 22 24 32 36 35 34 33 34 35 36 36 24 18 18
23 31 30 22 22 24 23 22 23 31 32 35 35 37 37 35 34 34 33 33 32 31 24 21 19 18 18 19 20 23 22 30 32 35 36 35 35 35 35 36 23 18 19 21
15 30 29 20 25 27 26 30 25 24 33 35 36 36 35 34 33 32 31 31 31 27 20 19 17 17 16 18 20 22 25 30 30 33 35 35 36 36 36 29 26 20 20 22
18 24 9 27 29 29 33 35 35 35 34 34 36 36 34 33 32 32 32 30 27 19 18 17 17 16 18 19 20 22 29 29 30 30 31 32 34 33 33 27 23 19 23 23
16 20 18 24 28 27 26 33 37 36 36 35 36 34 33 33 32 31 29 24 21 19 17 16 16 17 18 19 20 22 28 29 30 31 31 31 31 31 32 29 19 23 24 23
27 12 4 22 32 33 31 27 38 38 36 35 33 30 31 36 36 30 23 22 19 17 16 16 16 17 19 20 22 22 28 29 30 31 31 31 31 31 30 19 23 23 23 24
26 20 22 26 31 33 26 19 39 38 38 36 33 32 34 37 34 24 23 20 18 17 16 17 18 20 21 21 22 24 28 28 29 29 28 28 28 23 19 23 23 21 19 22
28 25 17 30 33 29 29 41 41 40 38 37 37 36 37 33 24 22 17 17 17 17 18 20 21 21 20 21 24 26 27 27 26 25 24 23 22 21 22 22 20 18 17 17
28 25 29 32 32 37 40 40 41 39 39 38 36 36 28 24 19 17 16 16 17 18 19 21 22 22 21 23 26 26 26 26 26 25 25 25 22 20 21 20 19 18 18 16
33 32 34 35 42 43 43 41 41 40 39 37 36 28 21 18 18 17 17 18 19 21 22 23 24 24 25 26 27 26 26 26 26 26 26 25 22 22 20 19 19 20 18 17
32 34 39 40 42 43 42 41 41 40 39 38 23 19 18 17 19 19 20 21 22 23 24 24 26 28 28 29 29 27 26 26 26 26 25 24 21 22 22 20 20 20 19 18
27 33 34 36 42 42 41 40 40 39 22 21 19 17 18 20 21 21 22 22 22 24 25 26 28 26 28 30 31 30 27 27 26 26 25 25 23 22 23 23 22 22 21 18
35 38 40 40 42 41 40 39 36 25 20 18 19 20 21 21 22 23 22 22 23 25 26 28 27 27 29 30 31 31 31 31 28 26 25 25 23 21 20 21 25 26 23 22
40 42 41 41 40 41 29 25 21 20 20 20 21 23 22 21 23 24 23 24 26 26 28 28 27 28 29 31 30 29 29 29 28 25 22 23 22 22 23 23 21 21 24 24
43 41 41 40 36 29 22 20 20 20 21 21 23 21 19 20 23 25 26 27 27 28 28 28 28 28 30 32 30 29 30 28 25 22 21 21 21 23 24 22 22 22 22 25
41 38 39 36 23 21 20 21 20 21 21 21 19 19 22 27 28 27 27 28 27 27 27 26 26 28 30 33 31 28 28 25 22 22 24 22 21 26 24 23 21 21 20 21
37 35 30 27 25 22 22 23 23 23 23 20 20 23 26 27 27 27 27 28 27 27 26 26 27 29 31 33 32 28 28 24 24 25 24 23 23 24 24 23 19 20 22 21
31 31 29 28 25 26 25 25 24 23 21 24 25 26 25 25 26 27 27 27 27 25 25 26 27 29 32 33 32 27 27 24 23 23 20 19 21 25 25 21 21 22 22 25
30 30 27 25 23 18 15 14 19 24 26 26 26 25 26 27 27 28 27 27 26 24 25 27 29 30 32 33 31 28 25 24 22 23 24 21 20 24 26 24 21 23 21 22
25 27 21 19 19 17 15 21 24 26 27 27 27 27 27 26 27 27 27 27 27 25 26 28 31 29 32 31 31 29 25 23 22 22 23 19 20 23 25 24 23 20 21 23
21 20 19 19 21 25 26 26 26 26 27 28 28 28 28 28 28 27 27 27 27 26 28 31 30 30 32 32 31 28 26 23 22 21 22 21 20 22 24 24 22 20 21 21
24 23 24 24 25 26 27 28 29 29 29 29 29 29 29 29 29 27 27 28 29 29 29 30 30 31 32 32 31 29 29 27 25 23 23 22 20 21 22 23 24 25 21 22
25 27 28 28 27 28 30 29 29 29 29 29 29 29 28 30 29 27 27 29 29 30 30 30 30 31 32 31 31 30 29 28 25 25 24 24 22 19 20 23 22 22 21 21
29 28 28 28 28 30 28 28 28 29 29 29 29 30 30 30 29 30 29 29 30 31 30 31 31 31 32 31 31 30 29 28 28 27 25 24 24 23 22 23 24 23 22 21
27 27 27 27 27 27 28 29 29 29 29 29 29 31 31 31 29 29 28 28 31 30 30 31 32 32 31 31 30 29 29 28 28 27 26 26 26 26 26 25 25 26 26 25
28 28 28 29 29 29 29 29 29 30 30 29 29 30 30 29 28 29 29 29 30 30 29 29 30 31 31 30 31 31 30 29 28 28 28 28 27 27 27 26 25 25 26 26
28 28 28 28 28 28 29 30 30 30 30 29 29 30 30 29 30 30 29 29 30 29 29 28 28 29 28 29 29 30 30 30 30 29 29 29 28 28 27 26 25 24 25 26

GFSNGP_sfc_30mbdewp_009.txt.gz
Dewpoint
27 28 26 23 22 26 26 26 22 23 24 29 34 35 36 36 35 34 33 33 32 31 24 20 19 19 19 19 20 22 20 25 29 33 35 34 34 34 34 35 35 36 28 21
27 31 29 22 23 23 23 23 26 27 28 35 36 37 36 36 34 33 31 31 31 31 25 20 19 17 17 18 19 22 21 25 29 30 32 34 35 36 36 36 36 23 29 25
9 28 25 12 19 25 24 28 26 27 30 35 36 36 36 35 34 33 31 29 29 30 22 20 18 17 16 17 20 21 22 27 29 31 31 32 33 35 35 33 30 27 21 22
17 19 6 14 27 29 27 33 34 32 34 35 36 36 36 35 34 32 31 30 31 27 19 19 18 17 17 18 20 21 22 29 29 30 29 31 32 32 32 33 32 25 22 24
13 14 14 15 29 31 28 28 35 34 34 35 36 35 34 34 33 31 31 31 26 21 18 17 17 16 17 19 20 22 22 27 29 30 30 31 30 30 31 31 27 23 24 24
23 9 1 8 31 32 30 25 37 35 35 34 34 32 33 34 33 33 33 23 21 18 16 16 16 18 19 20 21 21 23 27 29 29 30 28 28 29 29 19 23 23 22 23
20 16 17 21 32 32 25 17 38 37 36 35 34 33 33 36 36 32 21 17 18 17 17 19 20 21 20 21 21 22 26 27 27 27 25 25 24 22 20 23 24 20 21 21
25 21 13 28 30 29 29 34 38 38 38 36 35 35 36 37 24 18 17 17 17 17 19 21 22 22 22 22 22 24 26 27 26 26 25 25 24 21 23 23 19 18 18 18
24 19 28 31 32 34 36 36 39 39 39 38 37 37 36 23 18 16 16 17 18 20 21 22 23 24 24 25 26 27 27 27 26 26 26 25 22 21 21 20 18 18 18 16
30 29 30 32 34 40 41 39 41 41 39 39 37 34 22 19 17 17 18 19 20 21 21 23 25 26 27 27 28 29 28 27 27 26 26 25 22 21 20 19 19 19 19 18
32 33 35 38 39 40 42 42 41 40 39 38 34 22 19 18 18 19 20 21 21 22 24 24 26 28 27 27 30 29 28 28 27 28 26 23 21 22 21 21 21 20 20 19
24 28 32 32 37 41 42 41 41 39 36 29 23 19 19 19 20 20 21 21 21 23 25 25 28 27 27 28 30 31 30 30 30 30 26 25 23 22 23 24 24 24 24 19
30 34 34 37 40 42 41 41 41 32 26 20 20 20 20 20 21 22 23 22 23 25 26 27 28 28 28 29 30 30 29 28 31 30 27 24 23 22 20 20 24 25 26 23
39 41 40 41 40 42 37 34 27 22 22 21 21 21 20 19 23 23 23 25 26 27 28 28 27 26 28 29 31 31 29 29 29 29 27 23 23 22 21 23 21 21 22 25
39 41 39 41 40 30 23 22 21 22 22 22 23 20 20 20 21 24 27 27 27 28 27 26 25 25 27 29 31 31 29 29 28 26 24 21 21 20 23 22 21 22 21 23
41 40 40 36 25 21 23 25 27 23 22 23 21 20 21 25 26 27 27 27 28 27 26 26 25 26 28 30 31 32 30 29 25 22 22 25 23 22 25 23 22 19 19 19
38 36 26 25 29 33 33 33 27 25 25 22 19 22 24 24 25 26 26 27 27 26 26 25 25 27 28 30 32 32 30 28 25 24 25 23 22 21 23 23 23 18 19 21
33 32 33 33 32 31 28 29 29 23 21 23 24 24 23 23 24 25 26 27 26 26 26 25 26 28 30 31 32 32 30 29 26 24 24 22 19 19 21 24 25 20 20 21
33 32 32 33 34 34 30 21 22 25 26 25 25 24 25 25 26 26 26 26 26 25 26 25 27 29 30 28 30 31 28 27 26 24 22 22 20 19 20 23 25 22 20 20
35 35 30 20 20 20 21 24 25 23 26 27 26 26 25 25 24 25 25 26 27 27 27 27 27 28 27 29 31 30 29 26 24 24 21 21 21 18 18 22 23 23 21 19
22 21 22 22 22 24 25 26 25 25 26 27 27 27 27 28 28 28 26 26 27 27 28 27 29 29 29 30 31 31 30 27 24 24 23 22 21 19 18 21 23 23 21 19
24 25 26 26 26 26 27 28 28 28 28 28 28 29 28 28 28 28 28 27 28 28 28 29 29 30 30 30 31 31 30 28 27 27 25 24 24 23 22 21 20 21 22 22
28 29 28 27 27 27 29 28 28 27 27 27 27 28 28 28 29 29 27 28 27 28 28 29 29 29 30 31 31 30 30 29 28 27 26 26 25 24 23 23 22 22 24 24
26 26 27 27 27 27 27 27 28 28 28 28 28 27 28 29 30 30 30 29 28 26 29 30 30 30 31 31 31 30 29 29 29 29 28 28 27 26 25 24 24 24 23 22
27 27 27 27 28 28 28 28 28 29 29 29 29 30 31 31 30 30 29 29 29 29 30 29 27 28 27 29 29 29 29 29 29 28 28 27 27 26 26 26 26 26 26 25
28 28 28 28 28 28 28 28 28 29 28 27 28 28 28 28 29 29 28 29 29 29 29 29 26 24 20 18 18 18 20 23 26 28 29 28 28 27 27 27 27 27 26 27
27 27 27 27 28 28 27 28 28 29 29 27 27 28 28 28 28 29 30 28 27 25 24 19 19 16 15 14 13 13 13 14 14 14 15 18 22 28 28 28 28 28 27 27

GFSNGP_sfc_30mbdewp_012.txt.gz
Dewpoint
28 28 26 23 21 27 24 23 20 21 22 23 31 33 35 36 35 35 34 33 32 31 25 21 22 21 19 19 20 21 21 22 25 29 31 32 33 34 35 35 35 36 32 23
27 30 28 23 23 24 26 26 26 26 25 30 35 36 36 36 35 34 33 32 32 31 26 22 21 19 18 18 19 21 22 21 26 29 30 30 32 32 33 35 35 34 27 26
8 26 22 14 18 22 22 24 23 21 23 35 35 35 36 36 35 34 33 31 30 30 30 24 21 19 17 17 19 21 22 22 25 29 30 29 31 31 32 33 32 31 28 22
13 17 6 12 27 26 25 28 30 30 31 34 35 37 37 36 35 35 33 30 29 30 29 22 21 19 18 18 19 20 21 23 26 29 29 30 30 30 30 31 32 31 23 23
12 14 12 12 25 28 27 23 33 32 33 35 36 36 36 36 35 35 33 31 31 28 23 19 18 17 17 18 19 21 21 22 25 29 28 29 28 27 28 30 28 23 24 24
19 8 1 8 26 32 29 23 33 34 34 35 35 33 33 35 35 33 32 30 24 20 17 16 17 19 20 20 21 21 22 23 27 28 27 27 25 25 26 21 21 24 23 22
17 14 15 18 31 31 22 15 35 35 35 35 34 34 34 34 34 33 28 18 17 17 17 19 21 21 20 22 23 23 24 26 27 27 26 25 25 24 22 21 24 22 21 21
21 18 11 25 31 27 28 30 35 36 36 35 35 34 35 36 33 20 17 17 17 18 19 21 22 23 24 24 26 26 27 28 27 27 26 26 25 22 23 24 20 19 19 18
21 16 24 29 32 33 34 32 36 37 38 37 36 35 36 32 20 17 16 17 19 20 20 21 23 25 26 26 26 27 29 28 27 27 26 26 25 21 21 21 18 18 18 17
27 26 27 30 31 34 36 36 38 39 39 38 37 37 33 20 17 17 18 19 20 19 19 21 24 26 28 27 27 28 29 28 28 27 27 26 23 22 21 19 19 19 19 19
30 31 32 33 36 36 37 40 40 41 40 39 37 33 24 19 18 18 19 20 20 20 22 23 25 27 28 27 28 29 30 30 29 29 29 27 22 22 21 21 21 20 20 20
24 26 27 27 31 38 40 40 41 40 39 37 33 23 20 20 20 21 20 20 20 22 24 25 27 28 27 28 28 29 28 29 28 28 30 28 24 23 24 24 24 25 25 21
28 31 32 33 38 40 39 41 41 39 33 27 22 22 23 21 25 21 22 22 23 24 26 27 27 27 26 27 28 29 30 30 29 29 29 28 26 23 22 22 23 24 25 26
38 39 38 40 38 41 41 39 30 24 23 23 23 24 25 24 21 22 22 25 26 27 27 27 26 25 26 26 27 29 31 31 29 28 28 28 26 25 23 21 23 21 22 25
39 40 39 40 34 27 25 24 24 25 27 29 30 30 25 18 19 22 26 27 27 28 27 26 26 25 25 26 28 29 31 31 30 29 26 25 25 24 21 20 22 22 20 22
40 40 36 27 23 25 27 30 30 31 32 33 31 23 20 22 24 26 26 27 27 25 25 25 25 25 26 27 28 30 31 31 30 28 24 22 22 24 22 22 24 23 20 19
38 28 26 30 33 33 33 32 32 33 33 31 25 21 23 25 25 25 26 26 26 25 25 25 25 26 27 29 30 30 31 31 30 28 26 24 25 23 21 20 22 23 21 17
33 33 34 33 33 33 33 33 32 31 27 23 24 24 24 23 23 24 25 25 25 26 25 26 26 26 27 28 29 28 29 30 29 27 27 26 25 23 20 19 20 22 23 19
35 35 35 35 35 34 32 27 25 26 26 26 26 24 24 24 25 25 25 25 25 25 26 27 26 26 27 27 26 28 29 29 28 26 26 26 24 21 19 18 19 21 23 22
34 33 29 25 25 24 22 26 27 26 27 26 25 26 24 24 24 24 23 25 26 27 27 26 27 27 27 29 28 29 30 29 29 26 24 22 22 20 20 19 18 20 21 21
23 24 24 24 25 27 27 26 27 26 27 27 26 26 26 27 27 27 26 26 28 28 28 27 27 27 29 29 29 30 30 30 29 26 24 23 23 23 22 20 19 20 21 21
25 26 26 26 26 26 27 28 28 28 27 27 26 27 27 28 28 27 29 28 29 29 27 26 26 27 28 28 29 30 30 30 29 28 26 25 25 25 25 24 23 24 24 23
28 28 28 26 26 27 28 27 27 27 27 27 27 27 26 27 28 27 28 29 29 28 26 27 27 29 28 28 28 29 29 28 28 28 28 27 26 26 26 26 25 25 25 24
27 27 27 26 26 27 27 28 28 28 27 27 27 27 27 27 27 29 30 30 29 29 28 28 30 28 26 26 27 28 27 28 28 28 27 27 27 27 27 26 26 26 25 26
27 28 28 27 27 27 27 27 27 27 28 28 28 28 28 28 29 29 29 29 29 29 28 28 26 23 20 16 16 16 16 17 17 17 17 17 20 24 26 26 26 25 25 26
27 27 27 27 27 26 25 25 25 25 26 26 27 28 28 28 26 26 28 28 28 28 26 21 17 15 14 12 11 10 11 11 11 11 10 10 12 13 14 16 20 27 26 26
25 24 23 22 22 22 21 20 21 22 23 25 26 27 27 27 28 29 29 28 25 22 19 16 13 12 10 9 8 8 8 8 8 9 9 9 9 9 10 11 11 14 23 28

GFSNGP_sfc_30mbdewp_015.txt.gz
Dewpoint
27 28 27 22 25 26 22 22 18 18 21 22 26 32 35 37 37 36 35 34 33 32 28 22 22 25 28 24 23 23 23 23 24 28 31 31 31 31 32 33 34 36 35 31
26 29 27 24 23 24 27 26 24 24 24 28 31 35 36 36 36 35 34 34 33 32 29 23 23 27 25 23 22 23 23 24 25 27 30 31 31 31 31 32 32 34 30 30
13 25 21 15 18 22 24 25 26 22 23 32 32 34 35 36 36 35 35 34 33 32 31 26 26 25 23 21 21 22 23 23 25 27 29 30 30 29 28 29 30 32 33 27
13 16 5 12 27 25 23 24 25 26 28 32 34 36 37 37 36 36 35 34 32 32 32 31 26 22 22 20 20 21 22 23 25 26 28 29 29 27 27 28 31 32 28 24
12 14 13 10 18 24 25 17 28 28 30 34 36 37 37 37 37 37 36 34 31 31 30 23 21 20 19 20 21 22 22 23 24 26 29 28 27 26 26 27 25 24 24 25
18 8 3 8 19 33 29 22 28 32 33 35 36 32 30 37 37 37 36 33 30 23 19 18 19 21 21 20 22 23 25 26 26 28 28 28 27 26 26 26 22 24 24 23
16 14 15 18 28 31 18 13 29 35 34 36 34 34 35 36 37 35 32 23 19 18 19 21 22 22 20 23 23 26 26 26 27 28 27 28 27 26 25 23 24 25 24 22
20 17 9 24 31 25 26 30 31 36 35 36 36 35 34 35 32 26 20 19 19 20 21 23 22 22 22 23 26 26 27 27 28 28 28 27 26 26 24 24 24 24 24 23
20 16 23 26 32 33 34 32 33 36 37 37 37 35 36 32 24 19 17 18 19 19 19 21 23 24 23 26 27 27 28 29 29 29 27 27 27 25 23 22 22 22 21 23
26 25 26 29 30 32 33 34 35 37 37 38 37 36 34 24 20 18 18 19 20 17 17 20 24 25 27 28 28 28 28 29 30 28 28 28 27 23 22 22 22 22 23 22
29 29 30 30 33 34 35 37 38 40 40 39 39 37 29 22 19 19 20 25 20 19 20 22 25 26 28 28 28 28 28 26 26 27 26 27 30 24 22 22 23 23 22 23
24 26 27 28 29 34 36 37 40 41 40 39 36 31 22 21 23 24 30 21 20 21 23 24 26 27 27 27 29 29 28 28 29 29 28 29 29 26 24 25 25 25 25 25
29 33 32 33 35 38 39 40 41 40 36 29 24 24 25 28 33 35 22 21 21 22 25 27 27 26 26 27 28 28 28 29 29 30 29 29 29 28 26 26 24 24 25 25
38 38 37 38 39 39 35 27 26 25 26 27 29 31 33 34 30 23 22 23 27 28 27 28 26 26 26 26 27 27 28 30 31 30 30 30 29 29 28 27 25 24 26 23
39 41 39 30 27 26 26 29 31 33 34 34 36 36 35 31 23 24 27 29 29 27 28 27 25 25 26 27 26 27 28 30 31 31 31 30 28 27 28 27 24 24 25 24
32 27 28 28 29 30 32 34 33 33 33 34 33 33 30 25 25 28 30 28 26 27 26 25 25 25 27 27 27 29 29 29 29 30 30 29 27 26 25 26 26 24 25 25
30 30 32 32 33 34 34 34 33 33 33 34 33 29 24 27 28 27 27 27 27 27 26 25 25 27 27 27 28 27 28 28 28 30 30 28 28 27 26 26 24 23 23 27
34 35 35 34 33 33 33 33 33 33 32 27 26 26 26 26 26 27 27 25 24 26 27 27 27 27 27 27 28 28 28 27 28 28 29 28 28 28 28 27 24 24 23 25
34 34 34 33 33 33 32 30 27 27 27 28 28 28 27 27 26 25 26 25 24 25 27 27 27 27 28 28 28 29 29 29 28 27 28 28 27 27 27 26 25 24 23 23
30 29 27 26 26 26 26 28 28 27 28 27 26 26 25 25 25 25 25 24 26 27 28 28 27 27 28 28 28 29 29 29 28 28 28 28 26 26 26 25 24 24 24 24
23 24 25 27 27 27 27 27 27 27 27 26 27 27 27 27 29 29 28 27 29 29 29 29 28 28 27 28 29 29 28 28 28 28 29 28 27 25 26 26 26 25 25 25
26 27 27 26 26 27 27 27 28 27 27 27 26 26 25 26 27 29 29 28 30 30 30 29 28 27 27 28 28 27 27 29 29 29 28 27 27 27 27 27 27 27 27 27
29 27 27 27 27 27 27 27 26 27 27 27 27 27 26 27 28 27 27 29 29 30 29 29 29 28 28 28 26 27 28 27 26 27 28 27 26 26 26 26 27 27 27 27
27 28 27 27 26 25 25 25 26 26 26 27 27 28 27 26 27 28 29 30 29 30 30 30 30 28 27 25 22 21 20 19 19 18 17 16 17 17 18 22 23 25 26 26
27 27 26 25 24 23 23 21 21 22 22 22 23 25 24 28 27 27 28 28 30 30 29 29 22 20 20 17 16 15 14 14 13 13 13 13 12 13 13 14 15 16 17 18
24 23 22 22 21 19 16 17 17 19 20 20 21 22 24 25 25 26 27 28 29 29 27 20 18 16 15 13 12 11 11 11 10 10 10 10 10 10 10 10 11 12 13 14
20 18 17 17 15 14 13 13 14 15 16 17 16 17 18 22 22 21 23 25 28 23 18 14 13 11 11 10 9 9 9 9 7 6 7 7 7 7 8 8 9 10 11 12

GFSNGP_sfc_30mbdewp_018.txt.gz
Dewpoint
25 26 25 23 24 25 21 20 18 11 15 11 19 22 26 34 36 37 38 37 36 35 32 28 24 25 36 30 31 24 22 21 21 24 26 26 27 26 27 27 27 28 28 29
28 28 26 24 23 23 24 22 22 19 19 21 24 28 31 35 36 36 37 36 35 35 33 29 25 29 30 30 26 23 22 22 23 24 25 26 26 27 26 25 26 27 26 29
20 25 25 21 24 21 21 24 24 20 21 24 28 29 30 33 35 36 36 36 35 35 33 29 27 29 28 27 24 23 21 22 22 24 25 24 24 25 25 25 26 26 27 30
23 20 11 14 23 23 21 21 21 22 22 25 26 32 35 34 35 36 36 36 36 35 33 30 27 28 27 23 21 21 21 22 22 21 22 22 24 25 25 25 25 25 25 26
24 18 15 6 17 19 23 15 22 21 21 26 34 36 35 36 37 37 37 37 37 35 33 31 28 25 22 20 20 21 20 18 19 23 22 22 23 25 26 25 25 23 24 25
22 18 12 17 23 33 30 19 24 29 30 33 35 32 21 36 38 38 38 38 35 31 29 25 22 22 21 20 20 16 20 21 21 21 22 23 24 24 26 26 23 22 23 26
26 24 21 21 23 32 19 17 29 33 34 35 34 30 36 36 38 38 38 36 32 25 22 22 22 22 20 18 14 20 21 21 21 23 24 24 26 27 26 25 22 25 26 26
26 22 17 23 31 26 30 34 33 33 35 37 36 38 36 37 38 38 35 30 25 22 22 22 22 20 13 13 20 22 23 23 24 26 27 25 27 27 27 25 23 26 29 27
25 24 26 28 30 34 35 34 34 35 34 37 37 38 36 36 35 33 27 23 21 22 23 23 19 17 15 18 24 24 24 25 26 27 27 26 26 26 25 24 23 23 22 23
28 25 27 28 30 30 31 32 33 33 34 36 37 37 37 35 30 26 22 18 19 27 31 20 19 21 22 24 25 25 25 25 26 25 26 27 28 27 26 24 23 22 22 21
30 29 29 29 31 32 32 35 37 37 38 40 40 39 38 32 26 21 22 30 33 29 17 17 21 22 23 25 26 25 25 26 25 25 25 25 26 27 28 24 23 24 23 22
28 30 31 31 33 35 37 38 39 40 41 40 40 39 35 25 22 30 35 34 26 21 20 20 25 26 27 26 26 28 27 26 26 26 26 26 26 27 27 24 25 24 24 25
34 36 37 37 39 40 40 37 35 35 35 30 28 27 27 33 36 36 35 29 22 21 26 28 29 29 27 26 28 28 27 26 26 26 27 27 27 26 26 28 26 26 26 26
40 41 39 36 35 33 32 32 33 32 32 33 35 36 35 34 32 30 28 25 28 30 30 30 29 27 26 27 27 27 27 27 27 27 28 28 28 28 28 27 26 27 28 25
34 38 35 32 31 32 34 34 34 34 34 34 34 34 32 31 29 30 30 30 31 31 30 29 26 24 24 27 27 27 27 27 29 29 29 29 29 29 29 27 27 26 24 24
33 32 32 32 33 35 35 34 33 33 33 32 31 32 32 31 27 26 29 30 30 28 27 27 27 27 27 28 27 26 26 27 27 26 27 28 30 29 27 28 28 27 25 23
34 32 33 33 34 33 33 32 30 26 31 33 34 33 30 27 29 28 28 29 30 30 31 30 28 27 28 29 27 26 26 26 27 27 26 26 28 27 26 28 28 27 26 28
35 36 35 33 32 30 30 32 34 33 30 29 28 28 27 28 28 30 31 30 29 28 29 30 31 29 29 29 28 28 29 30 30 30 28 27 27 28 29 29 29 29 28 27
33 32 31 31 32 31 27 27 28 28 29 29 28 28 29 28 29 29 29 28 27 27 27 31 30 29 29 29 29 28 29 30 29 28 27 27 28 29 29 29 29 29 29 28
28 26 24 26 28 29 29 29 30 29 29 29 29 30 29 31 29 29 29 28 30 30 31 30 30 31 30 28 28 25 28 28 27 27 28 28 29 29 29 28 28 29 30 29
26 29 29 28 28 29 29 30 30 29 29 29 28 28 28 29 30 30 29 29 29 32 31 30 30 30 29 27 26 29 29 28 27 28 29 29 29 28 29 29 29 29 29 29
29 29 28 29 29 30 30 29 28 28 28 28 28 28 27 27 27 28 29 29 31 31 31 31 31 31 30 29 29 29 28 26 27 28 29 28 29 28 27 28 27 28 29 29
29 29 30 29 29 28 28 25 25 25 25 25 25 25 24 25 25 25 24 27 28 29 30 31 32 31 31 30 30 30 28 26 25 25 24 24 23 23 22 23 24 25 26 26
29 28 28 27 26 23 21 18 20 21 22 22 23 24 24 23 24 25 26 26 27 28 29 30 31 30 29 29 29 27 25 23 21 20 20 19 20 19 19 18 18 19 19 20
27 25 24 23 20 17 16 15 15 16 17 17 18 18 19 19 20 23 24 23 23 24 27 29 25 23 24 23 21 20 20 19 17 16 16 16 16 16 15 16 16 16 15 16
23 20 20 18 16 14 14 14 14 14 14 14 14 15 16 17 19 19 20 20 22 19 19 18 16 17 17 16 16 15 15 15 14 13 12 12 12 12 12 12 12 13 14 15
16 15 15 15 13 12 13 12 13 13 14 14 13 14 15 15 16 14 14 15 15 14 15 14 13 12 12 12 12 12 12 12 9 8 8 8 8 8 9 9 10 11 12 13

GFSNGP_sfc_30mbdewp_024.txt.gz
Dewpoint
21 21 24 25 21 19 18 21 21 23 17 14 12 16 16 19 25 27 27 35 36 40 41 41 41 41 38 36 36 36 35 30 27 26 26 28 29 29 28 29 28 28 27 27
30 27 25 23 22 21 18 15 16 15 15 14 16 22 22 22 21 25 26 28 34 38 42 41 40 41 38 35 36 38 36 30 26 25 26 28 29 27 27 27 27 27 27 27
24 25 23 16 22 22 18 18 16 15 19 18 17 17 23 25 25 26 29 30 33 37 40 41 40 39 36 34 37 37 31 27 26 26 26 27 24 22 22 24 27 27 28 27
25 24 11 12 18 16 15 15 13 11 16 16 25 27 26 24 27 28 30 32 34 36 39 39 39 37 34 32 35 32 27 26 28 27 22 21 22 23 23 25 26 27 27 27
27 21 18 18 16 17 17 17 19 19 19 19 24 25 27 29 31 30 30 31 32 35 37 38 38 36 32 33 29 27 29 30 29 20 21 21 22 23 24 25 26 28 27 26
26 25 20 24 23 25 23 16 24 24 24 24 24 24 30 35 33 31 31 31 33 35 37 38 36 32 29 30 31 31 28 25 24 21 23 25 24 25 26 26 27 27 26 26
30 29 30 23 24 26 18 28 29 30 28 29 29 32 36 36 36 35 33 35 37 37 33 27 28 30 30 32 31 32 30 25 25 27 26 25 25 26 27 28 27 28 27 27
34 33 24 22 26 24 34 31 30 30 30 32 33 35 36 35 34 36 35 36 31 27 30 33 34 34 33 31 29 30 27 27 28 28 26 25 27 28 28 28 28 28 28 28
31 31 30 24 25 26 29 29 30 31 32 33 35 34 34 35 37 36 32 26 26 32 35 34 33 32 30 28 26 28 30 30 29 27 26 26 26 26 26 27 29 28 28 28
29 22 24 25 27 27 31 34 35 35 36 38 39 40 39 38 35 29 24 27 33 33 31 29 28 28 28 29 30 30 30 28 26 27 27 27 27 26 26 26 28 29 29 27
28 29 28 29 35 38 39 39 40 40 39 38 38 39 35 28 29 29 33 32 30 28 30 32 31 30 29 30 30 28 27 28 29 29 29 29 28 27 26 27 27 27 28 29
33 36 36 37 38 39 37 36 36 35 33 31 30 28 29 33 32 29 28 31 31 31 30 30 30 28 28 28 29 29 29 30 30 29 29 28 27 27 27 27 28 28 28 26
36 39 40 38 36 36 36 35 36 36 36 35 35 35 34 33 32 32 32 32 31 30 29 28 28 29 30 30 30 29 29 29 29 29 28 28 29 28 28 30 31 30 29 28
37 39 37 37 36 37 36 35 35 34 33 33 33 34 34 33 32 32 31 30 28 27 28 28 28 29 30 30 28 28 29 29 28 28 30 29 29 28 26 25 26 27 30 30
35 36 36 36 36 36 35 34 32 32 31 30 30 29 29 28 27 27 27 27 27 27 25 25 27 28 27 28 27 27 28 29 29 30 30 30 29 28 28 29 29 28 29 30
35 36 36 35 34 33 32 30 30 30 31 32 30 27 26 25 23 23 23 30 29 30 31 30 30 30 31 30 28 27 28 29 29 29 29 29 30 30 29 28 27 28 30 29
35 34 34 33 32 31 31 32 31 27 25 27 29 30 30 29 29 30 31 32 32 31 31 32 32 31 32 32 31 29 29 31 31 31 33 32 31 29 29 30 30 27 27 29
36 35 34 32 31 32 28 27 28 28 29 30 30 30 30 29 29 30 31 31 30 31 32 33 33 32 32 32 31 31 31 31 31 33 32 30 30 29 27 27 28 28 28 28
32 31 31 30 28 29 29 30 31 30 30 30 30 29 29 28 27 27 26 26 27 28 30 30 28 30 31 31 30 30 30 30 30 31 31 30 29 27 27 28 28 30 30 30
28 28 29 31 32 30 30 31 31 30 29 28 27 26 25 25 26 25 26 25 24 28 25 24 24 25 25 27 28 27 29 31 30 31 31 30 28 28 28 28 29 30 30 30
28 30 31 30 29 29 29 29 27 26 26 26 25 25 24 25 27 25 23 21 26 23 23 21 22 24 23 23 25 25 26 28 27 29 30 30 29 28 27 26 27 27 28 28
31 31 30 30 28 27 27 27 26 26 25 25 24 23 22 20 20 20 19 22 21 21 20 24 22 17 17 20 25 25 26 27 28 28 28 29 28 26 24 24 24 24 24 25
31 31 30 29 28 26 24 24 25 23 22 22 21 20 19 18 19 18 19 19 19 18 18 20 17 14 16 20 19 19 20 21 20 20 21 22 22 22 22 21 21 21 22 21
30 29 28 27 26 23 19 17 18 21 18 17 19 19 17 18 19 19 19 18 18 17 17 19 17 14 15 16 16 15 15 17 14 15 15 16 17 17 17 17 17 17 16 15
28 27 27 25 21 19 17 15 16 16 16 16 17 16 17 18 17 17 18 17 16 16 16 16 16 14 13 13 13 13 12 13 12 12 11 12 12 12 13 13 12 11 12 12
26 24 19 18 17 17 16 15 17 16 15 16 15 17 18 18 18 16 16 16 16 15 15 14 14 14 13 11 11 11 11 10 9 9 9 10 9 9 10 9 8 8 8 10
20 21 19 18 15 15 16 16 16 16 17 17 14 16 17 16 16 15 14 14 14 14 13 13 12 12 12 10 10 9 8 8 7 8 7 6 6 7 6 7 7 8 8 9

GFSNGP_sfc_30mbdewp_027.txt.gz
Dewpoint
26 30 28 25 26 25 22 22 21 21 23 22 21 21 22 26 26 26 30 37 40 40 41 42 43 43 41 38 37 34 33 32 31 31 33 31 30 30 30 29 28 28 28 28
27 27 25 22 24 24 23 22 19 20 21 22 22 24 23 24 24 27 27 29 33 42 42 42 43 42 40 38 37 35 35 34 33 30 30 30 29 27 27 28 27 29 29 28
24 25 21 17 18 21 23 23 20 17 21 26 25 26 25 26 28 29 29 32 35 40 43 42 43 42 39 37 38 38 38 35 31 29 28 25 24 23 23 23 27 28 29 29
24 24 13 16 19 15 19 20 20 20 24 25 23 30 31 30 30 30 31 32 33 35 39 43 43 42 37 37 38 36 32 31 28 27 26 27 25 24 27 29 27 27 28 28
22 19 21 18 22 22 18 22 25 25 25 26 26 29 35 35 33 32 30 31 32 36 39 38 39 36 34 33 33 33 31 26 25 25 25 27 27 29 30 28 26 27 28 28
31 19 13 24 24 25 23 23 30 29 29 29 29 27 35 35 35 35 36 35 29 29 30 30 31 31 30 30 31 30 29 29 30 30 30 29 31 30 27 27 28 29 26 26
27 21 27 31 25 26 12 23 31 30 31 31 31 36 37 36 36 33 30 30 33 33 33 33 33 33 32 32 32 32 32 33 33 31 32 31 28 27 28 28 28 28 29 27
34 29 24 27 26 18 33 32 31 30 31 32 34 35 36 37 31 28 30 33 33 33 33 33 33 31 32 32 32 34 34 33 31 31 31 29 28 27 27 26 26 27 28 28
31 29 33 26 26 30 30 31 35 36 38 39 40 40 39 31 27 30 33 34 32 30 29 28 28 31 30 30 33 32 31 31 31 31 30 28 26 26 26 26 26 27 27 29
29 28 29 27 37 39 39 40 40 37 36 38 37 34 26 29 32 33 33 32 31 29 28 29 30 30 30 30 31 30 30 30 30 28 28 28 28 28 27 26 26 25 25 28
29 30 38 39 40 39 37 37 34 32 32 30 30 32 32 32 30 29 28 29 31 31 32 32 31 30 30 30 30 29 28 28 29 29 29 29 30 29 27 27 26 25 25 25
29 38 37 37 37 37 35 35 35 35 35 35 34 33 31 29 28 29 31 32 31 30 30 30 30 30 29 29 29 29 29 29 29 29 28 28 28 28 29 29 30 29 29 29
39 39 37 37 37 37 36 36 36 35 35 35 35 33 32 32 32 32 32 31 30 29 29 29 28 28 29 30 30 29 29 28 28 28 28 28 27 28 27 28 27 26 27 28
39 38 36 37 36 36 34 34 34 33 33 34 33 33 33 32 32 31 30 29 29 28 28 28 28 28 29 30 30 29 28 28 28 28 28 27 28 27 27 25 24 25 27 28
37 38 37 36 35 34 34 33 31 30 31 31 30 30 29 27 27 28 30 30 29 29 30 30 28 28 31 32 31 30 29 28 28 28 28 29 29 29 28 28 27 27 28 28
36 35 35 34 33 32 30 30 31 31 29 28 27 28 28 30 29 31 31 31 29 28 29 29 30 31 32 32 32 31 31 30 29 29 30 30 30 30 30 29 28 28 27 27
34 33 33 32 31 32 31 28 28 27 27 28 28 28 29 29 29 28 28 28 28 29 30 31 27 26 28 30 31 30 31 30 30 30 30 32 32 31 30 29 28 28 28 28
35 34 34 33 30 28 28 28 28 28 28 28 28 28 27 26 25 24 25 26 25 27 27 26 24 24 25 26 27 29 29 29 28 29 30 31 31 31 29 28 27 25 26 27
33 31 31 29 29 29 29 29 29 28 28 28 27 25 24 24 24 24 25 24 24 23 24 21 22 23 20 19 19 20 22 23 24 25 26 26 26 27 30 28 26 26 27 27
31 31 31 30 31 31 30 30 28 26 26 25 23 23 23 24 25 24 23 24 22 20 19 22 20 16 15 16 18 22 23 23 23 24 26 27 27 26 28 28 27 27 27 27
30 30 29 29 28 28 27 25 25 24 25 24 20 20 20 19 19 18 21 19 20 16 18 21 16 12 13 16 18 19 17 19 19 18 19 20 20 21 23 23 23 23 23 23
30 29 28 27 26 26 26 25 25 23 24 20 17 17 17 18 18 19 18 17 18 16 17 18 16 12 12 15 15 15 14 15 12 13 13 14 16 16 17 18 18 18 18 18
30 30 28 26 23 23 25 22 20 19 21 17 16 16 16 19 20 17 16 18 17 16 16 18 15 12 11 13 13 12 11 12 10 10 10 11 12 12 13 13 12 12 12 13
30 29 28 27 22 21 19 23 20 17 18 19 17 16 18 16 16 17 18 17 15 14 14 15 14 13 11 10 11 11 10 10 8 8 8 8 8 8 9 9 8 9 9 9
28 28 25 23 20 18 17 18 19 17 18 18 17 19 18 18 15 15 15 15 15 14 14 12 12 12 11 8 10 10 8 9 6 7 6 5 5 6 5 6 6 7 8 8
27 21 20 19 19 17 17 18 17 17 18 15 13 12 18 17 16 14 13 13 13 13 11 11 10 10 10 9 7 8 6 6 3 6 5 2 2 3 2 3 4 5 6 7
22 20 18 17 18 18 18 17 14 14 17 12 10 12 18 15 14 11 10 10 11 10 9 10 8 7 5 9 5 7 5 2 1 5 1 -0 0 -0 0 2 3 3 4 5

GFSNGP_sfc_30mbdewp_030.txt.gz
Dewpoint
23 28 29 24 26 27 24 24 21 20 24 22 22 21 22 23 26 36 42 42 40 40 41 43 44 44 40 38 39 36 35 33 32 33 33 33 33 31 30 30 29 29 29 30
24 28 25 23 22 24 24 23 24 23 21 24 24 26 26 25 27 28 30 32 36 40 41 43 44 44 41 39 38 36 34 33 34 33 34 33 31 30 26 25 25 27 27 30
22 24 20 20 20 19 22 24 23 19 23 25 26 26 26 28 30 30 33 35 40 41 42 43 44 44 43 40 38 36 36 35 34 32 29 28 27 26 27 29 29 28 28 29
23 21 17 20 22 22 22 22 23 24 25 29 31 33 31 31 30 30 30 32 35 39 43 43 44 43 40 40 39 37 33 31 30 30 29 30 30 32 33 32 29 28 27 28
21 18 22 20 21 19 18 24 26 26 28 28 33 34 34 35 36 35 34 32 31 32 33 34 37 37 35 33 29 28 28 30 30 31 33 35 35 34 32 31 28 27 29 29
30 18 15 18 25 25 25 23 30 29 30 30 29 28 34 36 33 30 32 33 32 33 32 32 32 32 31 31 31 32 32 33 35 36 36 35 35 32 30 28 28 29 28 28
24 19 18 25 27 25 11 15 31 31 31 31 31 34 37 31 32 33 33 33 33 32 32 32 33 33 33 33 33 36 38 38 38 37 36 33 32 30 29 28 27 26 27 28
29 24 20 31 26 20 24 33 31 31 32 35 39 37 31 30 33 33 32 33 33 32 32 32 34 34 34 35 36 36 37 37 35 32 31 30 30 28 27 26 26 26 26 26
28 24 31 29 29 34 32 33 36 38 40 40 40 32 29 31 33 32 31 30 29 29 30 31 31 32 32 34 35 33 32 31 30 30 30 30 27 26 26 26 26 26 26 25
32 33 33 37 40 40 41 38 36 37 39 36 29 30 31 33 32 31 31 29 29 29 31 31 31 30 30 30 30 30 29 29 29 29 28 29 28 28 28 27 26 26 26 25
33 38 39 39 38 37 34 34 33 33 33 32 32 32 31 30 29 29 30 32 32 32 31 30 30 30 30 29 29 28 28 28 28 28 29 29 29 29 29 28 27 26 26 26
27 35 35 37 37 36 35 35 35 34 34 33 31 29 29 30 31 32 31 31 30 30 30 30 29 29 29 29 29 29 28 28 28 27 27 28 28 28 29 29 29 29 29 27
37 39 37 37 37 37 36 35 35 34 34 32 32 31 32 31 32 31 31 30 29 29 28 28 28 28 29 30 30 30 29 29 28 28 27 27 27 27 27 28 29 28 27 27
37 37 36 36 34 34 34 34 34 33 33 32 32 32 32 31 31 30 29 29 28 29 30 29 30 30 31 32 31 31 30 30 29 28 28 28 28 28 27 27 27 26 26 27
38 38 36 35 34 33 32 32 31 31 30 30 30 29 28 29 30 30 30 29 29 29 30 29 28 27 27 29 29 30 30 29 29 29 30 30 30 31 30 29 30 29 29 27
35 35 34 33 32 31 30 30 29 28 28 27 28 29 29 30 29 28 27 27 27 28 29 26 24 23 25 27 26 26 27 28 28 28 28 28 27 29 29 29 28 29 28 27
34 33 32 30 30 30 31 29 28 27 27 27 27 28 27 26 24 24 25 26 27 27 25 22 22 24 24 21 17 17 19 20 21 22 22 23 24 26 26 25 27 28 28 29
34 33 32 31 30 29 28 28 27 28 28 28 27 25 21 21 23 24 24 23 23 22 20 22 20 17 16 16 19 20 21 21 21 22 22 22 24 25 24 25 24 25 27 27
34 33 31 30 29 27 27 27 28 28 28 26 23 22 23 24 24 23 23 20 19 16 18 18 16 13 13 16 18 19 17 17 18 17 18 18 18 19 21 21 23 26 26 26
31 31 30 30 29 28 28 28 27 26 25 23 23 23 20 19 19 21 20 17 15 16 21 16 13 11 12 14 15 14 13 15 11 12 12 12 14 15 15 16 17 18 19 19
29 29 29 29 28 29 26 25 24 23 22 20 19 18 18 18 19 18 18 17 16 16 18 15 13 12 10 12 13 11 11 11 8 9 8 9 10 9 11 12 12 12 12 13
28 27 27 27 26 25 25 25 24 22 18 16 16 16 18 19 18 17 16 16 16 14 17 16 14 11 10 10 11 10 9 9 6 7 6 7 7 6 7 8 7 8 9 10
28 27 26 24 24 24 23 22 22 19 16 15 15 17 19 18 16 13 14 17 16 14 16 13 12 11 8 8 9 8 7 6 4 5 5 5 4 4 5 4 5 6 6 7
28 26 25 24 24 22 19 18 19 19 16 17 16 16 17 16 15 17 16 15 13 13 12 11 10 10 7 6 7 5 6 5 1 3 4 2 0 2 1 1 2 3 4 5
29 28 23 22 20 20 22 20 19 20 18 16 17 19 18 16 13 14 12 12 13 11 10 9 9 7 7 5 5 4 4 1 -1 2 1 -2 -2 -0 -1 -1 0 1 2 3
26 23 21 19 19 19 19 18 17 18 15 11 11 15 16 15 12 11 9 10 11 9 8 7 6 2 3 6 4 4 2 -2 -1 1 -2 -4 -3 -3 -3 -2 -1 -0 0 1
21 20 19 19 19 19 16 14 14 16 13 10 11 14 14 11 8 7 5 7 9 7 7 6 5 3 2 4 4 4 1 -2 -1 -0 -4 -6 -6 -6 -5 -4 -2 -2 -1 0

GFSNGP_sfc_30mbdewp_033.txt.gz
Dewpoint
21 20 28 25 25 28 25 25 22 22 24 24 24 22 22 23 26 32 43 44 43 45 46 47 47 46 45 42 41 41 38 37 37 35 36 34 34 34 33 31 30 30 29 29
24 27 25 24 24 23 24 24 25 24 23 26 25 27 27 27 28 32 35 41 42 42 43 44 45 45 43 42 41 40 38 37 36 36 36 35 33 31 29 30 31 30 31 31
19 25 21 20 22 22 22 24 24 20 21 26 26 27 29 31 32 33 35 37 39 41 41 42 44 45 42 41 40 38 37 37 35 32 30 29 30 32 33 34 35 33 31 28
21 21 18 23 24 23 22 23 23 24 25 28 30 32 33 32 30 31 33 34 34 36 41 43 44 42 40 39 38 36 33 31 31 31 33 34 34 35 36 36 35 33 29 29
21 21 21 21 22 21 20 22 25 27 30 33 34 34 34 36 34 32 32 32 32 33 33 34 34 34 31 30 30 31 31 33 35 36 36 37 36 36 35 34 32 29 29 28
24 21 20 22 23 25 26 20 28 29 30 32 30 26 33 34 32 33 32 32 32 32 32 31 31 32 31 31 31 33 34 36 38 38 37 36 36 35 33 31 28 29 27 27
26 23 21 21 26 23 17 17 29 31 31 31 27 31 35 33 33 33 32 32 32 33 33 33 33 33 33 35 36 38 39 39 38 38 37 36 34 33 31 29 28 26 26 26
26 22 22 28 28 17 21 32 31 32 32 34 36 32 33 33 32 32 32 31 32 32 33 34 35 35 36 36 37 37 38 37 36 35 33 31 30 30 28 27 26 25 25 26
28 26 29 31 26 30 33 31 32 33 37 38 31 31 33 32 32 30 28 28 29 30 30 31 33 34 34 34 34 33 31 30 30 30 30 30 29 27 26 26 26 26 26 26
28 32 33 36 38 37 37 36 39 40 40 34 31 32 32 31 30 29 28 28 30 31 30 30 30 30 30 30 30 29 28 28 28 28 28 28 28 28 28 27 27 27 27 26
34 38 38 37 37 35 34 35 35 34 32 32 33 32 32 31 30 30 31 32 32 31 30 30 30 29 29 29 29 28 28 28 28 28 27 27 28 28 28 28 28 27 27 26
29 37 32 36 36 35 34 34 34 32 32 32 31 30 29 30 31 31 31 31 30 30 29 28 28 29 30 31 30 29 29 29 29 29 28 28 27 27 28 29 29 29 29 28
31 39 37 37 36 36 35 35 34 32 30 29 30 31 31 31 31 31 30 29 28 28 28 29 29 27 29 30 30 30 29 29 29 28 28 28 28 28 28 28 29 29 29 30
37 36 35 35 35 35 35 34 33 32 32 31 31 31 31 30 29 29 28 29 30 29 28 27 24 22 25 28 27 28 28 28 28 27 28 28 28 26 27 27 27 28 29 29
37 37 36 35 34 33 33 32 31 31 31 31 31 30 29 28 28 27 28 29 29 27 23 22 22 24 26 22 19 21 20 20 21 22 23 23 23 22 22 23 23 25 28 29
34 34 33 32 31 31 31 30 29 28 29 29 29 30 29 28 26 26 28 28 26 23 21 21 23 19 19 17 18 18 20 21 21 22 22 22 21 21 22 22 22 22 23 24
33 32 32 30 30 30 29 28 27 27 28 28 28 27 24 24 25 25 26 25 20 21 22 19 16 15 15 17 18 19 18 17 18 19 18 18 18 18 19 19 18 18 21 24
35 34 32 31 30 29 28 27 27 27 27 27 24 21 22 22 23 23 23 20 17 20 19 16 14 12 13 15 16 15 15 15 14 13 14 13 13 15 15 15 16 16 16 16
33 32 31 30 30 29 27 27 27 27 26 23 22 22 23 23 23 21 17 15 14 17 17 14 13 11 10 13 14 12 12 11 9 10 9 9 10 10 10 11 12 11 12 13
31 31 29 28 28 27 27 28 27 26 23 23 23 21 21 21 21 18 16 15 15 18 16 13 11 10 9 9 12 10 10 8 6 7 6 6 7 6 7 8 7 7 8 9
29 29 28 27 27 27 27 26 24 22 23 23 19 18 18 20 19 18 18 15 14 17 15 14 12 11 8 10 11 8 7 5 4 5 4 3 4 2 3 5 3 4 5 5
28 28 27 26 24 24 25 24 22 20 19 17 17 17 17 17 16 15 15 15 15 15 15 15 13 8 8 9 9 6 6 3 1 3 2 2 0 -1 0 1 -0 2 3 3
29 28 27 26 23 24 24 22 18 16 15 16 17 18 18 17 16 14 15 16 15 14 14 11 10 7 6 6 5 4 4 0 -1 0 0 -2 -3 -3 -1 -2 -2 -1 -0 1
27 26 25 24 23 21 21 21 17 17 16 17 17 18 17 15 16 16 15 13 12 11 10 8 8 8 6 4 4 2 1 -2 -3 -2 -2 -4 -5 -5 -4 -5 -5 -3 -2 -1
26 24 23 21 20 20 20 21 19 19 19 19 19 18 17 15 12 13 12 11 11 10 9 6 3 2 5 3 2 2 -1 -4 -3 -3 -4 -6 -7 -7 -7 -7 -6 -5 -3 -3
23 21 20 20 21 20 19 19 19 16 12 12 15 15 14 12 11 9 9 9 8 7 7 5 3 -1 1 3 2 1 -0 -3 -2 -3 -6 -8 -9 -9 -9 -9 -8 -6 -5 -4
21 21 20 19 19 18 18 18 17 16 12 11 13 12 11 9 6 4 4 6 6 5 4 3 3 2 0 -0 1 1 0 -2 -3 -5 -8 -11 -11 -11 -11 -11 -10 -8 -7 -5

GFSNGP_sfc_30mbdewp_039.txt.gz
Dewpoint
21 20 22 22 24 27 25 25 22 22 23 24 26 26 26 27 27 35 41 45 46 48 49 49 50 50 49 48 46 44 43 42 42 41 39 38 36 35 35 34 33 33 33 36
21 25 24 23 25 27 27 26 26 25 25 27 27 27 28 28 37 39 40 41 42 43 46 48 48 48 47 45 44 44 42 40 39 38 37 37 36 35 35 34 37 38 37 38
19 25 24 22 24 25 25 27 27 23 25 27 26 28 31 35 35 36 36 37 39 40 42 43 44 46 45 44 43 41 40 39 38 36 35 35 36 37 38 38 38 38 38 39
20 23 19 23 25 25 25 25 25 25 25 26 28 33 33 33 34 33 34 35 36 36 37 37 39 40 39 38 38 37 36 35 35 35 36 37 38 38 38 38 38 38 38 37
21 21 22 21 22 22 20 18 22 23 25 29 34 33 32 33 33 33 34 34 34 34 34 34 35 35 35 35 35 36 36 36 37 37 37 38 38 38 38 38 38 37 36 35
22 19 18 22 23 26 23 19 23 25 28 32 33 28 31 33 33 33 33 33 33 33 33 33 34 35 36 36 36 36 37 38 38 38 38 38 38 37 37 36 36 35 32 31
22 21 23 26 24 25 19 21 25 29 32 34 30 30 35 33 32 33 33 33 33 33 34 35 36 37 36 37 37 38 39 39 39 38 38 37 36 34 33 32 32 31 30 30
25 23 21 27 25 22 25 26 28 33 35 34 33 34 33 32 32 33 33 33 34 34 35 36 36 36 36 36 38 37 35 33 31 30 30 30 30 30 30 29 29 29 29 29
27 27 33 28 27 28 27 26 31 33 35 35 34 33 32 31 31 32 32 32 33 33 33 32 32 32 31 30 29 28 28 28 28 29 28 28 28 28 28 28 28 28 27 28
29 30 30 30 31 34 32 31 33 35 36 35 34 33 31 30 30 31 31 31 30 30 29 29 29 29 29 29 29 29 29 29 28 27 27 27 26 26 25 26 26 26 26 27
29 29 35 35 36 34 35 37 36 36 35 35 34 31 30 29 30 30 30 30 29 28 28 29 29 28 29 29 28 27 27 26 25 24 23 21 21 23 22 22 24 23 22 23
27 28 27 27 35 36 35 35 35 34 34 34 32 30 29 30 30 31 30 29 28 28 26 26 25 24 24 24 22 21 20 19 19 19 19 18 17 16 20 21 22 22 23 24
28 34 34 35 36 36 35 35 35 34 33 32 31 30 30 31 31 30 28 29 27 25 23 24 20 16 15 19 16 17 16 17 17 18 18 17 17 16 16 17 19 19 19 20
37 35 34 35 34 35 34 33 33 32 32 31 31 31 31 30 29 28 28 27 24 23 23 21 16 14 15 15 15 16 17 18 16 17 17 16 16 15 15 15 15 15 16 17
37 37 36 35 34 32 32 32 31 31 31 31 31 30 29 28 28 28 27 23 22 21 18 14 12 13 15 16 14 14 13 14 16 16 15 15 13 14 13 13 12 12 12 11
35 35 35 34 32 31 31 31 31 30 30 30 29 28 28 28 28 26 22 22 21 17 14 15 13 14 14 14 12 11 14 13 12 12 12 10 10 11 10 9 10 10 9 9
34 33 33 32 31 31 30 31 30 30 29 29 28 28 28 28 27 25 22 20 18 16 14 14 12 12 12 12 9 11 11 10 11 10 8 7 8 8 7 7 8 7 6 6
35 34 34 33 31 30 30 30 30 30 29 27 27 27 26 25 23 22 21 19 17 15 13 11 10 10 10 9 8 10 8 6 7 7 6 6 5 4 4 4 5 4 3 3
33 32 32 31 30 30 29 29 28 27 27 26 26 25 25 23 21 20 20 18 16 14 12 11 12 8 8 10 8 8 6 5 5 4 4 3 3 1 1 2 3 2 2 2
32 31 30 29 29 29 28 28 27 26 26 25 24 23 21 20 19 18 18 17 16 15 12 11 10 8 8 8 7 6 5 4 2 3 3 1 1 0 -0 -1 -1 -0 0 0
29 29 28 28 27 27 27 27 26 24 25 25 23 21 20 18 17 16 15 14 15 14 12 12 10 8 7 7 6 7 5 3 2 2 2 1 -0 -1 -2 -2 -2 -2 -1 -1
27 27 26 26 25 25 26 26 25 24 23 22 21 20 18 17 17 16 16 14 15 15 13 12 10 7 7 7 6 6 5 2 1 1 1 -0 -1 -3 -3 -3 -4 -3 -3 -3
27 26 26 24 23 22 23 22 22 20 19 19 19 19 18 17 15 14 13 14 15 13 12 11 9 7 5 7 6 5 4 1 0 -0 -0 -1 -2 -3 -5 -6 -6 -5 -4 -4
25 25 24 23 23 21 19 19 19 19 19 19 18 18 16 15 15 16 15 13 13 12 11 9 8 5 4 5 5 4 4 3 1 -0 -0 -4 -2 -4 -5 -7 -8 -7 -6 -6
25 25 24 23 21 20 19 19 19 18 18 17 17 17 16 15 16 14 13 12 11 10 10 6 4 2 4 4 4 3 3 3 1 -0 -0 -2 -3 -5 -6 -7 -8 -8 -8 -7
21 20 20 21 21 21 21 20 18 18 18 16 16 15 15 15 13 13 11 10 9 7 8 6 5 4 3 3 2 1 1 2 1 0 -2 -3 -4 -6 -8 -9 -10 -9 -9 -8
17 18 17 16 17 17 18 18 17 15 16 16 15 14 12 12 11 10 7 7 6 5 5 5 4 3 3 2 1 2 1 1 -1 -1 -2 -4 -6 -7 -9 -10 -11 -11 -10 -10

GFSNGP_sfc_30mbdewp_042.txt.gz
Dewpoint
18 15 15 15 15 23 23 24 20 21 19 20 18 22 21 29 28 32 36 40 45 47 49 50 52 52 53 52 51 51 50 49 49 48 47 45 44 43 42 42 38 37 35 38
21 21 20 17 18 18 22 20 22 22 19 20 23 28 28 29 32 37 40 42 44 47 48 49 50 50 49 49 48 47 46 44 43 42 40 39 38 37 36 36 37 38 39 39
17 23 22 22 25 21 22 26 24 20 21 21 23 27 28 32 36 38 40 41 42 43 43 45 47 47 46 45 45 44 43 41 40 38 37 37 36 36 38 37 40 39 38 35
21 25 20 18 26 23 23 23 24 24 23 23 24 26 32 35 36 36 37 38 39 40 41 42 43 43 43 42 42 40 39 38 38 38 37 37 37 37 38 38 38 37 38 39
27 23 19 22 24 24 24 21 22 22 22 22 28 32 33 34 35 36 37 37 37 38 39 39 39 39 39 39 39 38 38 38 37 37 37 38 37 38 38 38 38 39 38 37
27 22 20 19 23 26 25 21 22 23 24 25 31 28 27 34 35 35 35 36 36 37 37 38 38 38 38 38 37 37 37 37 37 37 37 37 38 39 37 37 37 36 34 33
28 27 25 28 26 26 21 22 26 24 26 30 31 30 34 34 35 35 35 35 36 36 37 37 38 38 37 37 37 37 38 38 38 37 36 35 33 30 29 28 29 30 30 30
30 29 25 28 26 24 27 33 30 31 30 33 34 36 34 34 34 34 34 35 36 37 37 37 37 37 36 36 37 37 34 32 29 27 24 25 25 25 25 25 26 27 28 28
29 28 31 30 27 29 33 29 32 32 33 35 36 34 34 34 34 34 34 34 35 36 36 36 36 35 34 33 30 28 26 25 26 27 27 27 26 26 25 26 25 25 23 24
32 28 32 33 31 32 31 31 31 33 35 37 35 34 34 34 33 33 33 33 33 33 32 31 30 30 28 27 26 26 26 26 25 25 24 22 19 17 16 18 20 18 18 18
32 32 34 35 34 32 33 34 34 33 35 35 35 34 34 33 33 32 32 32 32 31 30 29 28 28 27 27 26 24 24 22 19 17 14 12 12 15 17 18 21 19 19 19
31 32 32 30 34 35 34 35 35 35 36 36 35 34 33 32 32 32 31 31 30 29 28 26 26 25 23 22 21 19 15 14 17 17 16 12 11 11 21 20 20 20 20 20
31 36 36 37 36 36 36 35 36 35 36 36 34 33 33 32 32 32 31 30 28 27 25 21 18 17 16 15 14 13 12 13 15 15 13 13 13 12 12 15 16 17 16 16
38 36 34 35 34 37 37 37 37 36 35 35 33 32 32 32 32 30 29 28 26 24 20 16 13 12 12 12 13 14 13 15 14 15 13 13 13 13 13 13 13 13 13 13
38 37 37 37 36 36 35 35 34 34 33 33 32 33 32 31 30 29 27 25 24 22 17 12 10 11 13 12 10 11 11 11 15 15 15 13 13 13 12 12 11 11 11 9
37 36 36 35 34 33 34 34 33 32 33 32 32 32 31 30 29 26 24 23 19 16 13 16 12 12 13 8 7 10 13 12 13 12 11 10 10 11 9 10 10 10 9 9
36 35 35 33 33 33 33 33 33 32 32 32 31 31 30 28 25 24 23 21 19 18 17 14 10 11 12 7 6 8 10 10 11 10 9 8 9 9 8 8 8 8 8 9
37 36 36 35 34 33 32 33 32 32 31 31 30 28 26 24 22 21 21 20 19 18 15 11 10 9 7 6 7 8 8 8 8 8 8 9 7 7 7 7 7 7 7 7
35 35 35 34 33 33 32 31 30 29 29 28 27 26 25 24 22 21 20 19 17 14 13 11 11 9 8 10 8 9 8 9 7 6 7 6 7 6 7 7 6 6 6 5
32 32 32 32 31 30 28 28 28 28 28 27 26 24 23 22 22 21 21 20 17 14 12 11 8 8 7 7 7 7 8 8 5 6 7 6 7 6 6 4 3 4 5 5
28 28 27 27 27 28 28 28 27 26 27 27 25 23 21 21 21 21 18 15 14 12 11 11 9 7 6 6 5 9 8 7 6 6 6 6 5 5 4 4 4 4 4 4
27 26 26 26 26 26 27 27 26 25 24 23 22 21 20 19 19 18 18 15 14 14 13 11 9 9 7 8 6 8 6 5 5 5 5 5 4 3 3 2 2 2 2 3
26 26 25 24 24 23 24 24 24 23 22 22 22 22 21 18 16 15 13 15 14 14 12 12 10 9 8 9 8 7 6 5 5 5 4 4 3 3 1 1 1 -0 0 1
25 25 24 25 25 23 20 22 22 22 21 21 20 19 17 17 16 16 16 15 14 14 14 12 11 8 7 8 7 6 5 5 5 5 4 2 3 2 1 0 -1 -2 -2 -2
25 25 24 23 21 21 21 22 21 20 19 18 17 17 17 18 19 17 16 15 14 14 13 9 8 6 7 7 6 5 5 5 5 4 3 2 1 1 0 -0 -2 -2 -3 -3
20 19 20 21 21 21 21 21 19 20 19 18 18 18 18 17 16 16 15 14 12 10 9 9 8 7 7 6 5 4 4 3 3 3 2 1 0 -1 -1 -2 -3 -4 -3 -3
16 17 16 15 17 17 17 18 17 16 17 18 16 17 16 15 14 13 12 10 9 7 7 7 6 6 5 4 4 4 3 3 2 1 -0 -0 -1 -1 -2 -3 -4 -4 -5 -5

GFSNGP_sfc_30mbdewp_045.txt.gz
Dewpoint
19 19 18 18 19 18 18 18 18 19 17 19 19 20 17 26 25 24 28 30 32 41 45 49 52 53 54 54 54 53 53 53 53 52 52 51 51 49 48 45 42 40 39 38
17 20 18 15 14 13 14 16 17 17 16 19 17 17 18 22 25 27 32 36 41 44 47 50 52 52 52 52 52 51 49 49 48 46 45 44 43 42 42 41 40 39 38 39
21 20 19 18 17 15 14 15 18 17 19 20 19 18 21 25 26 32 37 40 43 46 48 49 50 50 49 49 48 46 45 44 43 41 40 39 37 37 37 38 38 39 39 38
23 25 20 20 20 18 17 17 17 18 20 19 19 19 24 28 30 36 39 41 42 43 45 46 46 45 45 44 43 42 41 41 40 40 39 38 38 38 39 38 38 38 38 37
26 24 21 17 19 20 18 17 17 18 19 19 20 26 31 32 34 37 39 39 39 40 41 41 42 42 41 40 40 40 39 39 39 39 39 38 38 39 39 38 38 40 39 38
29 24 21 22 22 22 19 19 19 18 19 21 23 27 24 34 36 37 37 37 38 39 39 39 40 40 39 39 38 38 38 38 38 38 38 38 39 39 39 39 38 36 34 32
31 27 24 22 21 21 21 20 22 22 20 20 21 27 32 35 36 36 36 37 38 38 38 39 39 39 38 38 37 38 38 39 39 39 39 38 35 31 29 28 27 29 30 30
32 29 27 28 26 23 26 27 29 29 24 25 26 36 36 35 35 35 35 36 37 38 38 38 38 38 37 37 38 38 38 37 33 27 23 25 25 25 23 25 27 28 29 28
29 29 31 31 28 29 26 26 31 29 28 29 35 36 35 35 34 35 35 36 37 38 38 38 38 37 37 36 36 34 29 25 24 24 23 24 24 25 22 22 22 22 20 21
31 31 31 34 32 30 32 32 32 32 29 33 37 36 35 34 34 35 35 35 36 37 37 36 36 35 34 33 30 27 26 25 24 23 22 19 16 14 15 20 20 17 17 18
30 27 29 29 33 34 33 33 32 32 31 33 37 35 34 34 35 34 34 35 36 35 34 32 31 30 29 27 26 25 23 22 20 17 13 12 13 15 17 20 19 18 20 19
30 27 32 35 34 33 35 33 35 33 32 36 36 35 34 34 35 34 34 34 34 33 32 30 29 27 26 25 23 21 18 17 19 19 15 11 10 17 18 17 19 20 19 18
31 34 37 37 36 35 33 34 34 35 33 35 35 35 34 34 34 34 33 33 32 31 29 27 25 21 19 20 19 17 16 17 16 16 14 13 13 13 12 20 19 19 17 15
28 33 36 35 34 36 36 36 36 35 35 35 36 35 34 34 34 33 33 32 30 28 24 21 18 15 15 15 14 14 14 15 15 15 14 14 13 14 13 14 15 15 16 12
37 39 38 38 36 36 36 37 36 35 35 36 36 34 34 34 33 32 31 29 26 22 17 14 12 11 13 13 12 13 12 14 17 18 16 15 14 14 13 13 13 13 12 12
39 38 37 36 35 35 35 35 35 35 35 35 34 34 34 33 32 30 27 26 21 15 14 16 15 14 10 9 10 12 13 14 15 14 13 12 12 12 10 11 11 11 12 12
37 37 37 36 36 34 34 35 35 34 34 34 34 34 32 30 26 24 21 21 22 21 19 17 20 22 10 8 9 11 13 12 13 11 10 10 10 11 10 10 11 10 10 12
38 37 37 37 36 35 35 35 35 35 34 34 32 29 27 24 23 21 21 21 21 20 21 21 20 12 8 8 9 10 11 10 10 10 10 12 10 9 10 10 10 9 9 9
36 36 36 35 35 35 35 33 31 30 30 28 27 24 23 22 21 20 21 19 18 17 18 17 15 12 12 13 9 10 11 11 9 8 10 9 11 10 10 10 9 9 9 8
31 31 31 30 31 30 29 29 28 27 27 26 25 23 22 21 22 22 22 21 21 18 17 14 10 9 7 8 8 9 11 11 9 8 10 9 10 10 10 8 7 7 8 8
27 27 27 27 27 28 28 28 27 26 26 26 24 22 22 22 21 21 19 16 18 17 15 13 10 8 7 6 6 12 11 11 9 9 9 9 9 9 8 8 8 7 7 7
27 27 26 26 26 26 26 26 25 24 23 22 22 22 21 20 21 22 22 17 17 16 14 12 10 10 9 10 8 11 9 8 8 8 8 8 8 7 7 7 6 6 5 5
26 26 25 24 24 24 25 25 25 25 24 24 23 23 22 22 22 18 17 17 15 15 14 15 12 11 9 12 11 10 9 8 8 8 7 7 7 7 6 5 4 4 3 3
25 25 25 25 25 23 21 22 23 22 22 22 23 24 23 20 19 18 18 17 15 18 17 15 12 9 9 10 10 9 8 8 8 8 8 7 6 7 5 4 3 3 2 2
23 24 25 24 22 23 23 23 22 22 21 21 21 21 21 21 20 20 18 16 15 16 15 10 9 8 9 9 9 8 7 7 8 6 4 5 5 5 4 3 2 2 0 -0
20 20 19 19 21 21 22 21 20 21 21 19 19 19 19 18 17 17 15 14 13 11 12 12 11 8 8 9 8 6 7 6 6 7 5 4 4 4 3 1 1 0 -0 -1
16 16 15 15 16 16 16 16 16 15 16 18 16 17 16 16 15 14 14 13 12 11 11 9 9 9 6 6 5 7 7 6 7 4 2 2 2 2 1 0 -0 -1 -2 -2

GFSNGP_sfc_30mbdewp_048.txt.gz
Dewpoint
21 20 21 22 21 21 20 20 21 23 21 21 20 25 26 27 26 24 23 24 28 33 45 49 52 53 54 56 56 56 57 56 55 54 54 53 51 50 48 47 46 43 41 40
24 21 20 23 25 19 18 17 17 19 19 19 18 22 24 18 20 25 25 25 31 33 44 50 51 54 55 54 54 54 53 52 52 52 52 52 51 49 47 43 41 40 40 39
23 23 21 19 22 20 18 16 16 15 19 19 19 21 19 19 22 24 27 34 38 41 48 51 53 53 53 53 52 50 49 48 46 45 43 42 41 41 41 40 40 39 39 40
25 26 21 22 24 21 19 18 18 16 16 17 19 21 19 24 25 31 36 38 42 47 50 52 51 51 50 49 48 46 44 43 42 41 39 39 38 39 39 40 40 40 39 39
25 24 25 21 23 20 20 19 19 18 17 17 17 24 26 29 30 36 39 42 44 46 48 48 47 47 45 44 43 42 42 41 41 40 40 40 39 40 40 40 39 40 40 39
29 25 22 26 25 23 22 20 21 19 20 20 21 22 24 33 35 39 41 41 42 44 44 44 43 43 42 41 41 40 40 40 40 40 40 40 40 40 40 40 39 38 38 38
32 30 28 24 24 24 20 23 24 23 22 22 21 23 31 34 38 39 39 39 40 40 40 41 41 41 40 39 39 39 39 39 39 40 40 39 39 39 38 35 33 32 31 31
33 31 28 29 25 22 26 28 29 28 29 27 29 35 36 37 38 38 37 38 39 39 40 40 40 39 38 38 39 39 39 39 39 38 34 32 29 26 25 28 30 30 30 29
31 30 35 32 30 30 30 31 32 33 31 31 37 37 37 37 37 36 36 37 38 39 39 39 39 39 38 38 39 39 37 32 26 24 25 26 27 26 26 26 25 23 22 23
29 33 36 34 35 33 33 34 34 34 34 32 38 37 37 37 36 36 35 36 37 38 39 39 38 38 38 38 37 32 27 26 26 25 23 21 18 17 24 24 21 19 20 21
30 31 29 28 34 37 36 36 35 34 34 33 36 38 37 36 36 35 35 36 37 38 38 38 37 36 36 34 30 28 27 25 23 20 17 16 18 20 22 18 21 21 21 21
31 31 32 34 37 37 34 32 33 35 35 34 34 38 37 36 36 35 35 37 37 38 37 35 34 32 30 29 27 26 23 22 23 20 16 15 17 17 21 19 20 19 18 18
29 33 36 37 37 36 36 36 36 36 36 35 36 37 36 36 36 36 36 36 36 35 33 31 29 28 26 26 24 22 22 22 21 20 18 16 15 19 21 20 21 20 18 17
24 28 30 28 36 38 38 38 37 36 36 36 36 36 36 36 36 35 35 35 34 32 29 26 21 19 19 18 19 18 18 19 20 19 19 17 17 16 16 17 19 21 18 16
40 39 39 39 38 37 37 37 38 37 36 36 37 37 37 36 35 35 35 32 30 26 22 18 16 14 16 17 16 17 19 21 23 23 20 18 17 16 15 15 15 15 15 16
39 39 38 38 37 36 36 36 36 37 37 38 37 36 36 35 34 31 29 26 22 18 17 17 15 15 15 15 18 21 22 22 22 20 15 15 14 15 13 14 14 14 14 15
38 38 38 38 38 37 35 36 36 36 36 37 35 33 30 24 23 22 21 21 21 21 22 22 18 14 15 19 25 24 21 20 16 15 14 13 13 14 12 13 13 13 13 14
37 37 37 37 37 37 36 36 35 33 32 28 26 25 24 22 21 21 21 21 20 20 21 21 21 21 21 22 21 20 19 16 15 14 12 14 13 12 12 13 13 12 13 12
32 32 33 33 33 32 31 30 29 28 27 25 23 22 21 21 20 20 20 19 18 17 18 20 20 19 18 19 18 17 17 15 11 11 12 11 13 13 12 13 12 11 11 12
28 28 28 27 28 28 27 27 26 25 25 23 22 21 20 21 22 21 20 18 18 18 20 19 18 16 14 14 11 15 14 14 11 10 12 11 12 13 11 11 11 11 12 12
26 26 25 25 25 26 26 26 24 23 24 24 22 20 20 21 21 20 17 15 18 20 20 20 18 15 11 8 9 15 14 13 12 11 12 12 12 12 12 11 12 11 10 11
25 25 24 25 24 24 24 24 23 23 22 22 22 22 21 20 20 19 19 17 19 20 20 18 13 11 10 13 15 16 12 12 11 11 11 12 11 11 10 10 10 9 9 7
25 25 24 23 22 22 23 23 23 23 22 23 22 22 21 22 21 18 16 20 21 21 18 15 14 12 10 17 14 14 14 11 11 13 11 11 11 10 8 8 8 7 7 8
24 24 24 24 23 21 20 22 22 22 22 22 22 23 23 20 19 20 20 20 19 17 16 14 11 9 8 14 14 12 11 11 11 12 12 10 10 11 10 8 7 7 7 6
21 22 23 23 22 22 23 23 22 22 21 20 20 20 20 21 19 18 18 17 16 18 12 10 9 9 12 12 12 11 10 10 10 8 7 8 8 8 7 7 7 6 5 3
20 19 19 19 19 20 21 19 17 20 19 18 19 19 19 19 18 17 15 15 13 13 12 15 11 10 11 9 8 8 9 10 9 9 9 7 5 4 5 6 5 5 4 3
14 15 14 14 15 15 14 15 15 14 16 18 16 16 17 17 15 15 15 13 12 13 12 11 12 10 11 8 8 7 6 7 8 8 5 5 4 4 4 4 4 2 1 0

GFSNGP_sfc_30mbdewp_054.txt.gz
Dewpoint
23 23 24 22 23 24 23 24 23 25 27 28 29 28 27 26 26 26 26 27 37 40 44 47 49 48 48 52 55 56 55 55 57 58 58 58 56 55 54 53 51 49 47 46
23 24 24 22 21 24 25 26 28 26 28 29 29 28 27 27 27 25 25 27 33 40 44 51 53 52 53 54 55 56 55 56 56 55 54 53 52 51 49 48 47 45 44 43
24 24 23 21 23 24 23 25 27 25 28 29 28 27 28 27 27 26 26 27 28 39 46 53 54 55 55 56 57 57 57 55 54 53 52 51 49 48 46 45 44 43 42 42
30 24 20 24 24 23 23 23 27 25 23 24 24 23 27 28 25 25 27 25 26 37 50 54 54 54 54 54 54 54 54 52 52 51 50 49 46 44 42 42 42 41 40 40
29 23 23 24 25 23 24 23 26 23 23 21 21 22 25 27 26 25 28 31 39 48 53 54 53 52 51 50 49 49 48 48 47 46 45 44 42 41 40 39 38 38 38 37
31 28 20 24 26 28 27 22 26 24 23 24 24 20 21 29 33 34 38 43 49 52 52 52 50 49 48 46 46 45 44 43 42 42 42 41 40 39 39 38 37 38 38 38
31 30 29 32 32 26 21 22 26 27 26 26 25 25 25 30 37 40 43 48 50 51 51 49 48 46 45 44 44 42 41 40 40 40 40 39 39 39 39 39 39 37 34 31
32 30 27 36 33 24 32 36 32 33 32 30 31 28 31 35 39 42 44 47 48 48 47 45 45 45 43 43 42 41 41 41 40 40 40 39 39 39 39 37 34 31 28 26
32 33 33 37 36 40 38 37 36 37 37 36 35 34 35 38 40 42 44 44 45 45 43 43 43 43 41 40 41 41 40 40 40 39 39 39 38 36 34 32 30 28 26 25
32 32 35 33 36 37 36 36 36 39 37 37 36 36 36 38 39 40 41 42 42 42 42 41 40 40 40 40 40 40 39 38 37 36 32 30 30 31 30 28 28 28 26 24
32 32 31 31 30 31 31 37 35 39 38 37 35 38 37 38 39 39 40 40 41 41 40 39 39 39 39 39 38 36 33 30 27 26 26 23 21 23 24 25 25 25 25 25
28 30 30 28 28 31 30 32 34 38 36 36 38 37 39 38 38 38 39 40 40 39 39 38 39 38 37 33 31 30 26 24 23 23 22 17 16 19 23 23 24 24 23 22
37 39 36 39 41 41 38 38 37 38 38 37 38 39 39 38 38 38 39 40 38 36 30 29 30 31 30 29 27 25 23 23 22 22 21 20 20 20 20 22 22 22 23 22
39 39 38 39 37 37 37 37 38 39 39 40 40 40 41 39 38 39 37 30 25 24 23 23 23 24 25 26 24 24 24 24 23 23 23 24 23 23 23 22 21 22 23 19
37 38 38 39 37 37 38 38 35 32 30 30 29 36 37 33 28 24 22 20 20 20 21 21 23 23 25 25 24 23 23 24 24 24 24 24 24 24 24 23 23 23 22 20
36 35 36 36 34 33 33 32 30 28 26 25 24 23 22 21 20 20 21 22 22 22 23 23 23 25 26 26 25 25 24 24 24 23 23 23 23 22 22 21 21 20 20 18
33 33 33 33 32 30 29 28 27 26 24 23 23 22 21 20 19 20 20 21 21 22 22 22 22 24 24 24 23 23 22 22 22 22 21 21 20 20 19 19 18 17 16 14
32 31 31 30 29 28 26 25 24 23 22 21 21 21 20 20 19 19 19 19 18 18 19 20 21 21 22 22 22 22 21 21 20 20 19 17 17 18 17 17 16 15 15 15
26 25 26 25 25 24 23 22 22 22 21 21 19 19 19 18 18 18 18 17 15 14 16 19 20 20 20 21 20 20 19 19 18 18 17 16 16 16 15 15 14 14 14 13
23 23 22 22 22 22 21 21 21 20 21 20 19 18 16 17 17 16 16 15 16 16 18 18 18 17 18 19 19 18 17 16 16 15 15 14 14 13 13 13 12 11 11 10
22 22 21 21 21 21 21 22 20 19 20 19 17 17 16 17 18 17 14 12 15 16 16 16 16 16 18 18 17 16 15 14 14 13 13 12 11 11 10 10 9 9 7 5
21 20 20 20 19 19 20 21 21 20 19 18 18 17 16 16 16 16 16 13 15 15 14 13 14 15 16 16 15 13 13 12 12 11 9 9 8 7 6 6 6 6 5 5
21 21 21 20 19 19 19 19 19 19 18 17 17 16 16 16 17 13 11 14 14 13 12 12 14 13 13 11 10 10 9 8 7 6 6 6 6 5 4 4 5 5 4 3
19 19 19 21 20 17 16 18 18 18 17 17 17 17 15 13 14 14 13 12 11 10 11 11 9 7 7 7 7 7 6 6 5 5 4 3 2 2 2 1 2 2 1 0
17 16 16 16 15 16 17 16 15 15 15 15 15 15 15 14 12 14 14 13 12 11 10 9 6 6 5 5 4 4 5 5 5 3 2 0 -0 0 -0 -0 -0 -0 -1 -1
15 14 13 13 13 13 13 14 13 13 12 11 11 12 12 13 13 12 11 10 9 9 8 7 5 4 4 4 3 2 2 2 2 1 -1 -1 -1 -2 -2 -3 -5 -6 -5 -4
11 11 11 10 9 9 10 10 9 10 9 7 7 8 9 9 7 7 5 5 4 3 2 1 1 2 -0 -2 0 0 -0 -1 -2 -3 -3 -3 -4 -3 -4 -5 -6 -7 -7 -7

GFSNGP_sfc_30mbdewp_057.txt.gz
Dewpoint
28 23 23 23 23 23 23 24 22 22 25 26 27 27 28 29 29 26 24 30 35 39 41 43 46 49 50 52 53 53 53 53 53 55 57 57 57 57 58 56 55 54 52 51
30 26 24 22 23 23 23 24 26 26 25 30 30 30 29 28 28 27 25 27 32 38 41 43 44 45 47 48 52 54 54 54 55 56 57 57 57 56 55 53 52 51 49 48
30 32 26 23 24 23 24 26 26 25 27 28 28 29 29 29 28 27 26 26 27 35 41 44 46 48 47 48 51 55 55 55 55 57 57 56 54 52 51 50 48 47 46 45
31 31 26 28 26 25 25 25 25 26 27 27 26 26 29 29 28 29 28 28 27 30 41 45 51 53 53 54 54 55 55 55 55 55 53 51 50 49 46 46 46 45 44 44
28 27 31 29 26 25 24 24 25 24 26 25 22 24 24 24 25 28 29 28 28 30 45 51 52 53 54 54 55 55 54 54 53 52 50 49 47 45 45 44 43 43 42 41
31 26 20 28 29 29 27 23 26 25 25 25 25 24 26 26 27 29 29 31 36 44 50 53 52 53 53 52 52 52 51 50 49 49 47 46 45 43 42 42 40 39 38 38
30 28 29 34 35 38 29 27 30 28 28 27 27 28 29 28 29 36 39 45 49 50 50 51 51 51 50 49 50 48 47 46 46 46 45 44 41 40 39 39 37 34 32 32
31 28 25 36 36 36 36 34 36 37 36 36 34 31 30 29 31 37 41 47 50 50 50 49 48 49 47 47 44 43 42 42 42 41 41 40 39 39 38 36 33 30 29 27
31 30 36 33 35 37 42 41 35 35 37 37 36 36 36 34 36 40 41 46 49 48 47 46 46 47 46 43 42 41 41 40 40 39 39 39 38 37 35 33 31 29 27 25
28 27 28 28 30 31 35 39 38 38 39 37 34 36 37 37 39 40 43 45 46 46 46 44 44 43 43 41 41 40 40 39 38 35 34 33 33 33 32 31 30 28 25 23
29 30 30 32 33 33 36 37 38 40 38 38 37 36 37 38 39 40 42 43 44 44 43 41 41 41 41 41 40 39 36 32 31 28 27 26 26 26 27 27 29 27 25 23
33 38 38 37 39 39 35 34 38 38 37 38 39 38 38 39 39 39 40 41 41 40 40 39 39 39 39 38 36 33 30 29 27 24 23 22 21 22 26 27 27 27 26 24
37 38 38 41 39 39 38 39 40 38 36 37 37 40 39 38 39 40 40 38 35 32 31 31 30 29 30 30 30 29 27 25 23 22 21 20 20 20 21 23 24 23 22 21
36 37 39 39 37 37 37 35 33 32 30 28 30 35 37 37 34 31 28 26 25 25 25 25 25 24 25 25 25 25 25 25 24 23 23 22 22 23 23 22 21 22 23 23
34 36 36 36 34 32 32 30 29 27 26 25 23 23 23 22 22 22 23 23 24 24 24 25 25 25 25 25 25 25 25 25 25 26 26 26 25 25 24 24 23 22 21 22
33 35 35 34 31 30 28 27 26 24 23 22 21 21 21 22 22 22 23 23 23 23 24 24 25 26 27 26 26 25 24 24 24 24 23 23 23 23 22 22 21 21 20 18
30 32 31 32 30 27 26 25 25 24 23 22 21 21 20 20 19 19 19 20 20 20 21 21 21 23 24 24 23 22 22 22 22 21 20 20 20 19 19 19 18 17 16 16
30 29 28 28 27 25 23 23 22 21 21 20 20 18 18 17 16 17 17 18 17 17 19 20 20 21 21 21 21 21 20 19 18 17 17 17 18 18 17 17 16 15 15 15
24 23 23 23 22 21 20 20 20 20 20 19 18 16 17 17 16 16 16 15 14 14 16 19 19 19 19 20 19 18 18 17 16 16 16 16 15 15 14 14 13 13 13 12
22 22 22 21 21 20 19 20 19 19 19 18 17 16 15 15 15 14 13 12 14 15 17 17 18 17 17 17 17 16 15 15 14 14 13 13 12 11 12 11 11 10 9 8
19 20 19 19 19 20 19 19 18 17 17 17 16 15 15 16 16 14 12 10 13 15 15 16 16 16 16 15 14 14 13 13 12 11 10 10 9 8 7 7 7 7 5 5
19 19 18 18 17 18 19 19 18 18 17 17 17 17 14 13 12 12 13 11 13 14 14 13 13 13 12 11 11 10 9 8 7 7 6 5 4 3 3 4 4 4 3 2
20 19 18 18 17 17 17 17 17 16 15 15 14 13 13 14 13 9 8 11 12 12 10 9 8 7 8 8 7 6 5 4 4 3 2 1 1 1 1 1 0 1 1 0
17 18 18 19 18 16 14 16 16 15 15 14 14 14 12 10 10 11 11 10 9 7 7 6 5 5 5 4 4 4 3 3 2 1 0 -1 -2 -2 -1 -1 -1 -2 -2 -2
15 15 15 14 14 15 14 14 12 12 11 11 12 13 12 12 10 11 10 9 9 7 5 4 4 3 2 1 2 2 1 0 -1 -2 -2 -2 -3 -4 -5 -4 -5 -6 -6 -6
12 11 11 12 12 12 12 11 10 9 9 8 8 8 8 9 8 7 6 5 4 2 1 0 0 -1 -0 -0 -1 -1 -0 -1 -3 -4 -4 -5 -6 -5 -6 -6 -7 -7 -8 -10
9 9 8 8 8 8 8 8 7 6 5 5 5 6 6 4 3 3 1 -0 -1 -1 -1 -3 -6 -5 -3 -2 -2 -3 -4 -3 -3 -3 -6 -6 -7 -8 -8 -9 -10 -11 -11 -12

GFSNGP_sfc_30mbdewp_060.txt.gz
Dewpoint
32 31 29 25 23 23 21 23 21 21 23 25 26 26 27 27 28 29 28 27 30 38 43 46 49 49 49 49 50 51 51 50 50 50 50 52 53 54 55 55 55 55 56 55
26 32 31 29 24 23 23 24 24 24 24 27 28 29 28 28 29 29 29 28 26 32 40 43 47 49 50 50 50 51 52 52 51 52 52 53 55 55 56 56 56 57 55 53
26 31 28 25 26 26 25 25 24 23 25 26 28 29 29 29 30 29 30 29 28 28 35 39 43 47 49 50 52 52 52 52 52 53 53 54 55 56 56 56 55 53 51 50
26 25 22 28 27 28 26 26 27 27 28 27 26 28 30 29 27 30 30 30 29 29 30 39 42 44 45 47 49 52 53 53 53 54 54 55 56 55 54 52 51 49 48 47
25 21 23 21 26 29 32 29 28 26 26 26 26 24 24 25 25 25 27 29 30 30 30 34 42 49 50 49 50 52 53 54 54 55 55 53 52 50 48 47 47 45 45 44
30 24 14 23 33 35 35 23 34 34 31 29 27 23 24 27 27 27 29 31 31 32 34 40 46 52 51 52 53 52 53 54 54 54 51 50 48 47 46 45 42 41 40 41
28 24 26 32 34 37 25 20 38 39 38 36 33 29 32 33 31 31 35 37 45 45 45 47 51 52 51 52 53 51 50 50 50 50 49 47 44 43 42 39 36 34 33 33
30 27 22 33 35 31 34 38 38 37 39 39 37 36 36 37 36 36 36 40 48 46 48 50 51 51 49 49 47 47 47 46 45 44 43 41 40 39 37 34 32 31 29 28
28 27 31 35 32 33 38 37 37 37 37 38 40 36 37 37 38 39 42 43 48 49 48 48 48 49 48 43 44 44 43 42 41 41 40 40 38 36 34 33 31 30 28 25
26 25 29 31 32 35 36 37 35 33 36 37 40 38 37 39 39 40 42 44 46 47 46 45 45 45 44 42 42 42 41 39 37 36 35 35 35 34 33 32 30 29 27 24
28 32 35 35 38 40 39 40 37 33 36 39 40 38 40 40 40 40 41 43 44 44 42 42 42 42 42 42 41 39 36 34 32 31 30 29 28 29 30 31 31 29 27 24
27 37 37 37 39 37 38 38 36 35 38 35 35 37 40 40 40 40 40 40 39 38 37 36 36 36 38 38 37 34 32 30 29 28 27 27 27 26 29 29 27 26 25 24
35 36 36 37 39 35 34 35 33 31 29 28 29 28 35 30 29 30 30 29 30 28 27 27 27 28 29 31 32 31 29 26 25 25 24 23 24 23 21 25 27 27 26 25
35 35 36 37 35 33 32 32 29 27 25 24 25 25 25 25 25 25 25 26 27 26 26 25 25 26 26 27 26 26 25 25 25 25 25 24 24 24 24 22 21 22 25 24
32 33 35 35 32 30 29 28 26 24 23 22 23 23 23 22 22 23 25 25 25 25 25 26 25 26 26 26 26 26 26 26 26 26 26 26 26 25 24 23 21 21 22 22
30 32 34 34 30 27 26 26 24 23 23 22 21 21 20 20 20 20 20 20 19 19 21 21 22 24 25 25 24 24 24 24 24 23 23 23 23 22 22 21 21 20 19 16
28 28 27 28 27 25 24 23 23 22 21 20 20 19 18 18 17 17 18 18 18 18 19 19 19 21 22 22 22 21 20 20 20 20 19 19 19 19 18 18 17 15 15 16
26 25 25 25 24 23 21 21 20 20 19 18 18 17 16 15 15 15 16 17 16 16 17 19 19 19 19 20 20 19 18 18 18 17 17 16 16 16 15 15 15 14 14 13
23 22 22 22 22 21 20 19 18 18 17 17 15 14 14 14 14 14 15 14 13 13 15 17 18 17 17 18 18 17 16 16 15 15 14 14 13 13 12 12 11 11 10 9
21 21 20 19 19 19 17 18 18 17 17 16 15 14 13 13 13 13 12 11 13 14 16 16 15 15 15 15 15 14 14 13 12 12 11 10 10 9 10 9 8 7 7 6
18 18 18 17 17 18 18 18 16 15 16 15 12 12 11 12 13 11 10 9 12 14 13 13 13 12 12 12 12 11 10 9 8 7 6 5 4 4 4 4 4 3 3 2
18 17 16 16 16 15 16 16 16 15 15 14 14 13 12 11 10 10 11 10 11 10 9 9 9 9 9 8 8 7 6 5 5 4 3 1 0 -0 -0 -0 -0 -1 -2 -2
18 17 17 16 15 15 15 15 14 14 13 12 11 11 10 11 10 7 6 8 7 6 6 6 5 5 5 4 4 3 2 1 1 -1 -1 -2 -2 -2 -2 -3 -4 -3 -3 -3
16 17 16 17 16 14 12 13 14 14 13 12 12 11 9 8 9 9 7 6 5 4 4 3 2 2 2 1 1 0 -1 -1 -2 -3 -4 -4 -5 -6 -5 -5 -6 -7 -8 -7
14 14 14 14 13 13 12 11 10 10 9 9 9 9 9 9 6 7 6 4 3 1 0 -0 -0 -1 -1 -2 -2 -2 -3 -4 -5 -5 -5 -5 -6 -6 -7 -8 -8 -9 -9 -10
11 11 11 11 11 11 9 8 7 8 7 6 5 5 5 5 5 3 1 1 -0 -2 -4 -6 -4 -3 -3 -3 -4 -4 -5 -4 -5 -6 -7 -8 -9 -9 -9 -9 -11 -11 -12 -13
7 7 7 7 6 6 6 5 4 3 2 2 2 3 2 0 -0 -1 -3 -3 -4 -5 -6 -6 -6 -5 -4 -4 -4 -5 -6 -7 -8 -8 -10 -9 -10 -10 -12 -13 -14 -15 -16 -16

GFSNGP_sfc_30mbdewp_063.txt.gz
Dewpoint
33 31 32 30 28 25 22 23 20 21 23 24 25 26 27 30 30 30 29 30 29 34 42 47 49 50 50 50 50 50 49 48 48 49 49 49 49 50 50 50 51 51 52 53
27 30 29 28 28 26 24 24 24 24 24 26 26 28 28 28 29 29 29 30 31 31 35 43 47 49 50 50 51 51 50 49 49 50 49 49 49 49 50 51 51 52 53 54
21 30 27 25 24 25 27 26 26 24 26 28 27 27 29 29 31 31 31 31 31 31 32 38 43 47 49 50 51 51 51 51 51 50 51 51 51 51 52 53 54 54 55 55
23 24 12 24 30 27 27 27 29 28 30 30 30 30 29 31 30 30 30 29 31 31 31 33 39 44 48 49 51 51 51 51 52 52 52 52 53 53 54 55 55 55 55 53
24 19 20 16 26 30 30 26 37 36 37 37 36 30 28 28 29 30 30 30 30 32 32 33 36 41 44 48 50 51 52 52 52 53 53 53 54 54 54 53 52 50 49 48
30 25 14 19 32 36 37 19 37 37 36 37 36 33 33 36 38 37 33 32 34 36 34 33 35 45 46 46 48 49 51 52 53 54 54 54 52 51 48 48 45 43 42 43
29 26 25 29 33 37 21 21 33 38 37 37 35 36 39 39 39 39 39 38 43 46 46 47 49 50 49 51 50 52 53 53 53 53 53 51 48 46 44 41 38 36 35 35
27 27 22 30 34 27 31 35 36 37 37 35 37 38 40 38 39 40 41 44 47 49 48 49 51 51 51 51 50 51 51 50 48 47 46 45 43 40 38 36 33 32 31 30
29 27 31 35 34 36 39 38 39 38 38 35 35 36 39 39 39 40 42 44 47 47 47 47 48 49 48 45 46 46 45 43 42 42 41 40 38 36 34 33 32 30 29 27
28 26 31 34 37 40 38 39 39 36 37 39 35 36 40 41 41 41 42 44 45 44 43 43 44 44 45 44 44 43 41 40 39 37 36 36 35 34 33 32 31 29 28 26
28 30 34 37 39 37 37 37 35 34 33 32 32 35 38 41 40 41 41 39 40 40 38 37 38 40 42 43 42 38 37 35 34 32 31 30 29 31 31 32 32 30 28 26
27 35 34 36 38 35 35 34 32 31 30 28 28 29 35 31 31 31 32 33 33 33 33 32 31 30 33 36 37 35 34 33 32 31 29 28 28 27 29 28 27 27 26 25
33 34 35 37 37 34 33 33 30 27 25 25 26 27 27 27 28 28 28 28 28 28 28 29 29 29 29 30 31 31 29 29 28 28 28 26 25 24 23 26 27 27 27 26
32 33 35 36 34 31 30 30 29 27 25 24 24 25 25 25 25 26 26 26 25 25 26 26 26 27 29 29 29 28 27 27 26 26 25 25 24 24 23 22 21 22 25 25
28 30 31 33 31 28 27 27 26 26 26 24 24 22 22 21 21 21 21 21 21 21 22 22 23 24 26 26 26 26 25 25 25 25 25 26 25 24 23 23 22 21 21 22
27 28 29 30 27 25 25 25 24 23 22 22 22 20 19 19 18 18 18 18 18 18 19 20 20 22 24 23 23 22 22 22 23 23 23 23 23 23 23 22 21 19 18 18
25 24 23 24 24 23 22 23 23 21 20 20 19 20 18 17 16 16 16 17 17 17 18 18 18 20 21 21 21 20 20 20 20 20 20 20 20 19 19 18 16 15 15 16
24 24 23 23 22 21 20 20 19 19 17 17 17 16 15 14 14 14 16 16 15 15 16 17 18 19 19 19 19 19 19 18 17 17 16 16 16 16 16 15 15 13 12 12
21 20 20 20 20 19 18 17 17 17 16 15 13 13 13 13 13 13 14 13 12 12 14 16 16 16 17 17 17 16 16 15 14 14 13 13 13 12 12 11 11 10 10 9
18 18 18 17 18 17 16 17 16 15 15 14 14 12 11 12 13 12 11 10 11 12 13 14 14 14 13 13 13 12 12 12 10 10 10 9 9 9 8 7 6 7 7 6
17 17 16 15 15 16 16 16 14 13 13 13 11 10 10 11 11 12 9 7 9 11 10 9 8 8 8 7 8 9 8 7 7 6 6 6 5 4 4 4 4 4 4 4
17 16 15 15 14 14 15 15 14 14 13 13 13 12 11 10 9 8 8 6 5 6 5 6 5 6 6 5 6 5 4 4 3 3 2 2 1 1 1 1 1 1 1 1
16 16 15 14 14 14 14 13 13 12 11 10 10 9 9 8 6 4 3 5 4 4 3 4 4 4 4 4 4 3 2 1 1 0 -0 -0 -0 -1 -1 -1 -1 -2 -3 -3
16 16 15 15 15 13 11 12 12 12 11 10 10 10 7 6 6 6 5 3 3 2 3 2 2 1 2 2 2 1 0 -0 -1 -1 -1 -2 -2 -2 -3 -3 -4 -4 -5 -5
14 14 14 14 12 11 11 10 9 8 7 7 7 7 7 6 4 4 3 2 1 -0 -0 -1 -1 -1 1 1 -0 -1 -2 -2 -2 -2 -2 -2 -3 -3 -4 -4 -6 -6 -7 -7
11 10 10 10 10 9 8 7 7 7 6 5 5 5 5 4 2 1 0 -1 -2 -3 -3 -2 -2 -1 -1 -2 -2 -2 -2 -2 -2 -3 -3 -4 -4 -5 -6 -7 -8 -9 -9 -10
7 7 6 5 5 5 5 5 5 4 3 3 2 3 1 1 0 -0 -1 -2 -2 -3 -3 -2 -2 -2 -1 -1 -2 -2 -2 -3 -6 -4 -5 -5 -6 -7 -9 -10 -10 -11 -11 -11

GFSNGP_sfc_30mbdewp_066.txt.gz
Dewpoint
31 31 30 29 28 25 21 20 20 20 20 21 22 23 25 27 28 28 28 30 31 33 38 43 46 48 49 49 50 50 49 48 49 50 51 51 51 51 51 52 51 51 51 52
25 27 28 27 27 27 25 24 24 23 23 25 26 27 27 27 28 26 29 30 30 31 32 35 42 46 48 49 49 51 50 49 49 49 50 50 51 51 51 51 51 51 51 51
22 24 21 22 26 26 26 26 26 24 26 28 28 29 30 29 30 30 29 29 31 32 33 34 36 42 46 48 49 50 50 50 50 50 50 50 50 50 50 50 51 51 51 50
24 25 19 27 29 27 26 28 28 28 33 34 34 34 32 35 35 35 33 33 30 31 33 33 35 37 43 45 48 50 50 50 50 50 50 50 50 50 50 51 51 52 52 52
19 19 20 18 26 26 24 30 30 30 32 34 34 34 34 37 38 39 38 37 35 34 34 37 35 35 38 41 44 47 49 50 50 50 50 51 51 52 52 53 54 54 55 55
28 19 11 18 31 34 34 18 26 32 31 30 32 33 32 36 38 38 39 40 41 41 44 44 44 42 37 39 42 45 47 48 50 51 51 52 52 53 55 55 54 48 46 46
24 22 20 25 32 35 17 23 30 29 29 30 28 31 36 37 37 38 40 42 45 46 47 49 50 50 46 43 42 44 47 50 51 52 53 53 55 53 48 45 42 39 37 37
22 22 23 33 28 23 32 33 36 36 36 38 39 38 35 34 36 38 40 43 46 47 47 48 49 50 50 50 52 52 52 53 53 53 50 50 46 43 41 39 36 34 33 31
23 22 34 35 33 39 39 38 39 38 37 37 38 38 38 36 38 40 41 43 45 45 45 45 44 47 48 47 47 46 45 44 43 42 41 41 40 38 37 35 34 32 30 29
24 26 29 34 38 38 38 38 37 36 35 34 34 35 36 39 41 41 40 40 41 42 42 41 40 39 41 44 44 43 41 39 38 37 36 36 36 35 34 33 32 30 29 27
22 24 32 37 37 37 37 37 36 34 33 31 31 32 34 36 34 34 34 35 35 37 38 37 37 35 35 37 39 38 37 35 34 33 31 30 29 31 31 32 32 30 28 26
24 35 35 35 36 36 36 35 35 32 30 30 29 30 31 31 31 31 31 31 30 30 30 31 32 32 32 33 34 34 33 33 32 31 30 28 27 26 29 29 28 28 27 25
33 34 35 35 36 33 33 32 32 30 28 27 28 28 29 28 27 27 27 27 27 27 27 27 28 28 30 31 31 31 29 29 29 28 28 26 26 24 22 25 27 28 27 27
31 32 34 34 34 31 30 30 30 28 27 26 26 25 26 24 24 23 23 24 24 24 24 25 25 26 28 30 29 28 27 27 27 26 25 25 24 24 24 22 21 22 26 26
28 28 30 32 30 27 27 27 26 25 24 23 23 22 21 20 20 20 23 23 21 20 21 21 22 23 25 26 25 26 25 25 26 26 26 25 25 24 23 22 21 21 22 22
25 27 27 27 25 24 23 23 22 21 21 21 20 20 19 19 18 18 19 19 17 17 19 19 19 22 24 24 23 23 24 24 25 25 25 25 25 24 23 22 21 21 20 20
23 24 24 25 24 22 22 21 21 19 18 17 18 19 19 18 17 17 17 17 17 18 18 19 19 21 23 25 25 25 23 23 24 23 22 22 22 21 20 19 18 16 16 17
22 22 23 23 23 21 20 19 19 18 17 16 16 16 15 15 15 16 16 17 16 16 17 18 19 20 21 22 22 21 20 20 19 19 19 18 18 18 17 16 15 14 14 13
20 20 20 20 20 19 18 17 17 16 16 16 15 14 14 14 14 14 15 14 13 13 14 16 17 16 16 17 18 18 18 17 16 15 15 15 14 14 14 13 13 12 11 10
18 18 18 18 18 17 16 17 16 15 16 15 15 14 13 13 14 13 12 10 11 11 11 10 10 10 11 12 13 14 14 13 11 11 12 12 11 10 8 7 8 8 8 7
17 17 16 16 16 16 16 16 15 13 14 14 12 11 10 10 12 13 10 7 7 7 6 6 6 5 6 6 7 10 9 8 8 8 8 7 7 6 6 5 5 5 5 5
17 16 15 15 15 15 15 15 14 14 13 13 13 13 12 10 7 6 6 5 4 4 4 3 4 6 5 5 6 6 5 5 5 5 4 4 4 4 3 3 3 3 3 3
16 16 15 15 14 14 14 14 13 13 12 11 10 9 8 7 6 5 3 3 3 3 2 3 4 4 4 5 5 4 3 3 3 3 3 3 3 2 2 1 1 1 1 -0
16 16 16 16 16 14 12 14 12 11 10 9 9 9 7 7 6 4 3 2 2 2 3 3 3 3 3 4 3 2 2 2 2 2 1 1 1 0 -0 -1 -1 -0 -1 -2
16 16 16 15 13 12 11 10 9 8 7 7 6 6 5 5 5 4 3 1 0 1 1 1 2 2 2 2 1 1 1 0 0 1 1 0 -0 -1 -1 -1 -2 -3 -3 -3
14 12 11 11 10 9 8 8 7 7 6 6 6 6 6 4 3 2 2 0 -0 -0 1 2 2 2 2 1 1 0 0 -0 0 -1 -1 -1 -2 -2 -3 -4 -4 -4 -4 -4
9 9 8 7 7 7 7 7 7 6 7 6 5 5 4 4 2 1 1 1 1 0 1 1 1 0 -0 -0 -1 -1 -1 -1 -2 -2 -2 -2 -3 -3 -4 -5 -5 -5 -5 -6

GFSNGP_sfc_30mbdewp_069.txt.gz
Dewpoint
25 30 26 24 22 22 21 22 21 21 20 20 22 23 23 25 27 27 26 26 28 30 36 41 45 47 49 49 50 50 49 48 49 52 53 53 54 54 54 54 54 53 53 53
30 25 26 24 23 23 23 24 23 23 23 24 24 26 27 27 28 27 27 28 29 31 31 31 38 44 46 48 50 50 50 50 49 51 51 52 53 54 54 54 54 53 53 53
30 30 27 24 26 27 28 26 27 24 28 30 27 29 31 32 33 35 35 33 33 32 31 33 34 35 43 46 48 50 51 51 50 51 51 52 53 53 53 54 54 54 53 53
28 30 22 31 28 27 29 29 28 29 28 29 29 29 34 36 37 37 38 38 38 36 35 34 37 35 36 40 46 48 49 50 50 51 51 51 52 52 53 53 54 54 54 54
24 25 29 22 29 30 33 30 27 29 29 28 27 29 35 36 37 37 38 38 41 43 43 42 43 44 39 35 38 44 48 50 49 50 50 51 51 52 53 53 53 53 54 54
26 25 20 24 30 32 27 29 26 28 28 27 26 22 25 32 36 36 36 39 43 45 47 48 48 49 48 43 37 38 42 47 49 50 50 50 52 52 53 53 53 54 51 48
23 20 17 25 30 32 23 30 31 31 32 33 32 32 34 35 34 35 38 39 43 45 46 47 47 48 49 48 49 50 47 46 48 49 50 51 51 53 54 53 47 43 41 38
20 19 18 30 28 27 33 34 35 34 34 35 35 36 37 37 36 37 39 40 42 44 45 45 45 47 47 46 47 50 51 50 49 49 50 52 52 49 47 44 40 37 34 32
20 20 31 34 36 36 37 36 35 35 35 35 35 35 36 37 38 40 39 39 40 42 42 41 40 40 41 42 43 44 43 43 42 41 40 40 41 40 39 38 37 34 31 29
27 29 33 35 36 36 36 36 35 35 34 34 34 34 34 36 35 35 35 35 36 38 37 35 35 34 35 38 39 37 35 35 35 34 33 34 34 35 35 34 32 31 29 27
21 28 32 34 36 36 36 36 35 35 34 33 32 32 32 33 33 33 33 33 33 33 32 31 31 31 32 34 36 34 32 32 32 31 29 28 28 30 30 31 32 29 28 26
28 34 34 34 35 35 34 34 34 33 32 32 31 30 31 31 30 29 29 29 29 29 30 29 29 29 30 31 34 33 31 30 30 29 28 27 26 26 28 28 28 27 27 26
33 33 34 35 34 33 33 32 32 31 30 29 29 28 28 28 26 26 25 25 25 26 26 26 27 27 28 30 30 30 29 29 28 27 26 25 24 23 22 26 28 28 28 28
31 31 34 33 33 31 30 30 30 29 27 25 24 24 23 22 21 21 22 22 23 23 23 23 24 24 26 27 27 28 28 27 26 26 26 25 24 24 23 22 21 23 26 26
27 28 31 31 29 27 27 27 27 26 25 23 22 21 20 19 18 18 20 21 21 22 21 23 22 24 26 26 25 26 26 27 26 26 26 25 24 24 23 22 21 21 22 23
25 26 27 27 26 24 24 24 24 23 22 21 20 19 19 18 17 18 19 19 18 19 20 20 22 25 27 28 27 26 26 26 26 26 26 26 25 24 22 21 20 20 21 22
23 24 24 25 25 23 23 23 22 21 20 20 19 20 20 18 18 18 18 18 18 19 19 20 21 23 25 26 25 24 24 24 23 23 23 23 23 22 21 20 18 17 18 19
21 22 22 23 23 23 21 21 20 19 18 19 18 18 17 16 16 16 17 18 17 16 17 19 20 21 22 23 22 22 21 21 20 19 19 19 19 19 18 18 17 16 16 16
20 20 20 20 21 20 19 18 18 18 18 18 16 15 15 14 14 14 14 13 13 12 14 15 14 15 15 17 18 18 18 17 17 17 16 15 15 16 16 14 14 13 12 10
18 18 18 18 18 17 17 18 18 17 18 17 17 15 14 15 15 14 12 10 10 9 8 9 8 8 8 11 11 13 14 13 11 11 11 12 12 11 9 8 9 9 9 8
17 16 16 16 16 17 17 17 16 15 15 15 13 12 11 11 10 13 10 6 6 6 5 5 6 5 6 6 8 10 10 9 9 9 9 9 8 7 7 7 7 7 7 6
16 16 16 16 15 15 16 16 15 15 14 15 15 15 14 11 8 6 6 5 4 4 4 4 5 6 7 6 7 7 6 6 7 7 7 7 7 6 6 5 5 5 5 5
17 17 16 15 15 15 15 14 15 14 13 12 10 9 7 6 5 5 3 3 3 4 3 4 4 5 6 7 7 6 5 5 5 5 5 5 5 4 4 3 4 3 3 2
17 17 17 17 18 16 14 15 13 11 10 9 8 9 8 8 6 4 3 2 3 3 3 3 3 4 5 6 5 5 5 5 5 4 4 3 4 3 3 2 1 2 2 1
17 18 18 18 15 13 12 10 8 7 7 6 6 5 4 5 5 5 5 3 2 4 4 2 3 3 5 4 4 4 4 3 2 3 3 2 2 2 2 1 1 -0 -0 0
17 14 12 11 10 9 8 7 7 7 6 7 7 8 7 6 5 4 4 2 2 2 4 4 3 4 4 3 3 2 3 2 2 1 1 1 1 1 0 -1 -1 -1 -1 -1
11 9 8 7 7 7 8 8 8 7 8 7 6 6 6 6 4 3 3 4 4 3 4 3 3 2 1 1 2 1 1 1 1 -2 0 0 -0 -0 -1 -2 -2 -2 -2 -3

GFSNGP_sfc_30mbdewp_072.txt.gz
Dewpoint
34 32 33 35 31 31 31 31 28 27 29 31 32 31 25 28 27 27 27 31 30 32 36 42 46 49 50 50 50 51 50 49 51 53 55 55 55 55 55 54 54 53 53 53
27 29 31 35 31 31 33 31 28 24 27 29 28 29 32 35 36 36 36 37 36 35 34 33 40 46 48 50 51 51 50 49 50 51 53 54 55 55 55 55 55 54 54 53
26 33 33 26 31 31 29 27 29 29 34 32 30 29 35 36 37 37 37 38 40 41 41 40 38 40 40 48 51 51 51 51 51 50 51 53 54 54 54 55 55 55 54 54
27 30 23 28 36 32 33 35 36 35 34 32 29 33 35 37 37 37 38 39 42 44 45 47 48 49 49 47 41 50 51 51 52 52 51 51 53 53 54 54 54 54 54 54
26 25 29 28 35 38 30 36 40 36 34 29 25 35 32 32 36 36 37 40 43 46 47 47 47 48 49 49 46 41 49 50 51 52 52 51 51 52 53 53 54 54 54 54
29 24 22 27 36 39 38 31 36 35 32 33 30 33 33 35 35 34 38 42 43 46 46 45 45 48 49 48 47 48 51 52 52 52 52 51 52 52 53 53 53 54 53 47
25 27 21 26 37 39 29 32 38 36 33 34 33 34 35 36 37 38 39 41 42 45 43 41 41 45 44 44 44 45 47 46 45 46 49 52 53 53 53 53 48 43 40 36
22 22 21 33 34 31 37 39 34 34 35 34 34 34 34 37 38 37 37 37 38 41 39 37 36 38 39 39 40 40 39 38 37 37 38 41 46 45 46 45 42 39 36 33
21 22 34 36 35 36 37 35 34 34 34 34 34 34 34 35 35 35 34 34 35 35 35 34 33 33 34 35 38 36 35 33 32 31 30 32 34 36 37 38 37 35 33 29
27 34 35 35 35 36 36 35 34 34 34 34 34 33 33 33 33 32 32 32 32 33 32 31 31 31 32 33 36 34 33 32 30 29 28 27 28 30 31 32 32 30 29 27
35 38 38 35 34 35 34 34 34 34 33 32 32 32 32 31 29 29 28 28 29 28 28 28 28 29 30 31 33 33 32 30 29 28 26 26 26 27 28 29 30 27 26 26
33 34 36 34 34 34 33 33 33 32 31 31 30 30 30 27 27 26 24 25 25 25 25 25 25 26 28 30 30 31 29 28 28 27 26 25 24 25 28 29 29 29 28 27
29 32 35 34 32 32 31 31 31 29 28 27 26 26 25 23 23 22 22 22 22 22 24 24 24 25 26 28 28 28 28 27 26 26 25 24 24 23 22 25 27 27 28 28
28 31 31 30 29 29 29 30 29 27 25 24 24 23 22 20 20 20 20 21 21 21 22 24 25 27 28 29 28 27 26 26 25 25 25 24 24 23 23 21 20 21 25 25
26 29 29 29 27 26 26 27 27 25 24 23 22 21 20 19 19 19 22 22 20 20 20 21 22 24 29 29 27 27 26 26 26 25 25 25 24 23 23 22 21 21 22 21
26 26 26 27 26 24 24 24 24 23 22 21 20 20 20 19 19 18 19 18 17 17 19 19 20 23 26 27 27 26 24 25 26 25 24 23 22 20 20 19 18 18 19 19
23 23 23 23 26 23 23 22 21 21 20 20 21 22 22 20 18 18 18 17 17 17 18 18 19 21 24 25 25 24 24 23 22 22 22 22 21 19 18 17 17 16 17 18
22 23 23 23 24 22 20 19 19 19 18 18 18 17 16 15 14 14 15 15 14 13 16 17 19 19 20 23 23 23 22 21 20 19 20 20 20 19 19 17 17 16 15 14
21 21 20 21 20 19 17 17 17 18 18 17 16 15 15 14 14 13 14 13 12 10 11 14 14 14 15 16 18 19 17 16 17 18 16 15 15 15 16 15 14 13 12 12
18 18 17 17 19 17 17 18 17 17 17 16 14 13 12 13 16 14 12 10 10 9 9 9 10 9 10 11 13 13 14 14 13 12 12 12 12 12 11 10 12 12 11 10
17 17 17 17 17 17 17 17 15 14 15 15 13 12 11 11 10 11 8 6 7 8 7 7 8 9 8 8 10 12 12 11 12 12 12 11 11 10 11 11 10 10 9 9
17 17 17 17 16 16 17 16 15 15 15 14 14 15 14 12 8 6 6 6 5 6 6 6 8 9 10 10 10 9 9 9 10 10 10 10 10 9 9 8 8 8 8 8
18 17 16 16 15 15 15 15 15 14 13 13 13 11 8 7 6 5 3 4 4 5 4 6 6 7 9 9 9 9 9 8 8 7 8 7 7 7 6 4 7 6 5 3
18 18 17 18 19 16 14 15 13 11 10 8 9 8 11 12 8 6 4 4 6 6 4 5 5 7 8 8 9 7 6 6 9 7 7 6 6 6 7 3 4 4 2 3
18 18 18 18 15 12 12 10 9 8 8 7 7 6 5 6 7 5 7 5 3 7 7 4 6 9 7 7 5 6 8 5 4 5 5 5 4 5 4 3 2 1 3 3
16 13 12 11 10 9 8 8 8 9 9 10 9 10 10 8 7 8 7 5 5 5 6 8 5 5 6 6 5 4 5 6 2 3 3 4 3 4 4 1 1 2 2 1
12 11 9 8 8 8 9 10 13 11 12 11 9 8 9 9 6 6 6 6 8 6 8 7 7 5 2 3 4 4 4 4 3 1 3 3 2 2 3 1 0 -0 -0 -0

GFSNGP_sfc_30mbdewp_075.txt.gz
Dewpoint
31 30 33 32 33 36 34 35 34 35 32 38 37 39 37 37 38 38 39 40 42 42 41 44 49 49 49 51 52 52 52 54 54 55 55 55 54 55 55 55 54 54 54 54
27 28 31 31 34 36 38 35 36 37 37 41 40 42 37 37 37 38 39 42 44 46 48 48 48 50 51 51 51 52 51 51 52 54 55 55 55 55 55 55 54 54 54 54
25 30 31 29 34 37 37 38 37 36 38 40 42 38 37 37 38 38 41 43 46 47 47 47 47 48 49 50 52 53 51 51 50 51 54 55 55 55 55 55 55 54 54 54
25 29 24 31 35 37 38 39 39 39 39 39 39 35 36 37 36 39 43 45 46 46 45 44 45 48 49 48 48 49 52 53 53 52 51 52 54 55 55 55 55 55 55 54
21 25 27 32 38 37 37 36 39 40 41 40 41 37 36 38 39 42 43 46 45 42 41 40 41 45 45 45 46 46 47 47 47 48 49 53 52 53 54 54 54 55 55 55
26 23 22 28 38 37 36 32 39 39 38 38 36 34 35 38 37 37 39 43 41 38 37 36 36 41 41 41 41 42 42 42 41 41 43 45 49 50 54 54 54 54 54 51
25 24 26 35 38 36 30 32 42 38 36 34 33 35 38 37 35 35 35 36 37 35 34 33 34 36 36 36 37 38 38 38 37 36 37 38 42 42 43 48 52 48 44 38
25 23 18 38 39 35 39 40 37 36 37 35 34 35 35 34 33 32 32 33 34 33 32 31 32 33 33 33 36 36 35 33 32 32 33 33 34 36 37 37 37 35 33 31
24 25 37 39 40 37 36 35 35 34 34 34 34 34 33 31 31 30 29 30 31 31 30 29 29 30 30 31 34 34 32 31 30 28 29 30 30 30 31 33 33 31 30 29
26 35 35 35 35 35 35 34 34 33 32 33 32 32 30 29 28 27 27 27 28 28 27 26 27 27 29 30 33 32 31 29 28 27 27 27 28 28 28 29 28 28 27 26
31 33 35 36 34 34 33 33 32 32 30 30 30 29 28 27 26 25 25 25 25 25 24 24 25 26 28 29 30 30 29 28 27 26 25 26 27 27 27 28 27 26 26 26
29 34 33 33 33 33 32 31 29 29 27 26 27 26 25 24 23 22 22 22 23 23 24 25 25 26 28 28 28 28 27 26 26 26 25 24 23 24 28 28 28 29 28 27
34 34 32 31 30 31 30 28 27 25 25 24 23 23 21 22 21 21 21 21 22 22 23 24 26 26 27 28 27 26 26 26 25 25 24 23 22 21 20 22 24 26 28 28
30 31 28 28 27 28 29 28 26 24 23 22 22 20 20 19 20 20 20 21 21 20 21 22 24 25 27 26 26 27 25 26 25 24 23 23 22 21 20 19 19 19 23 24
27 28 28 26 25 25 26 26 24 23 22 21 21 21 19 19 17 17 19 18 17 17 18 19 20 23 26 26 24 24 25 25 24 23 22 21 21 20 19 19 19 19 18 18
24 24 25 27 25 23 23 23 23 22 21 20 20 20 19 18 16 16 16 16 14 14 16 17 18 20 24 24 23 22 22 23 23 22 21 19 18 17 17 17 16 16 15 16
22 21 22 24 22 21 22 22 21 19 18 17 17 20 17 15 15 14 14 14 13 14 16 16 17 19 22 22 22 21 21 20 21 21 20 20 18 17 16 15 14 14 14 15
22 22 23 23 20 19 19 18 17 16 16 16 15 14 13 12 12 12 13 12 11 10 12 15 17 17 20 21 21 20 20 19 18 17 17 17 17 16 15 14 14 12 11 10
19 19 19 18 19 18 17 16 17 17 17 16 14 13 12 12 11 11 11 10 9 8 9 11 12 13 14 16 15 17 15 14 15 16 15 13 12 13 14 12 11 10 10 9
17 17 17 17 17 16 15 15 15 14 15 13 12 11 11 12 12 9 8 8 8 9 9 10 11 11 11 12 13 14 14 14 13 13 12 12 12 12 11 11 10 10 9 9
15 15 15 15 15 15 15 14 13 13 14 12 10 8 7 7 7 8 7 6 8 8 8 9 10 11 10 10 10 11 11 11 11 11 10 10 9 8 8 8 7 7 7 7
16 15 14 14 14 14 14 13 13 12 11 11 12 12 9 7 5 5 6 6 7 6 7 7 9 9 9 10 11 10 8 7 8 8 7 7 5 3 4 6 5 1 2 5
16 16 15 14 13 13 14 12 11 10 9 9 10 9 7 7 6 4 4 6 6 5 6 6 7 8 9 9 6 5 6 8 7 6 6 5 5 3 2 4 4 2 2 3
18 16 14 14 14 14 13 11 10 9 8 8 6 7 11 9 9 7 5 7 5 3 4 6 8 7 5 3 6 5 2 2 3 4 4 3 4 3 3 1 -1 -2 2 2
17 17 18 16 14 12 11 11 10 10 9 9 9 9 7 6 3 5 5 4 6 7 3 1 4 5 4 4 1 4 4 3 2 -1 4 2 2 3 -1 -1 1 1 1 -1
15 12 11 10 11 12 13 14 14 13 12 11 10 7 6 7 10 9 6 6 5 6 7 2 1 -1 0 3 2 2 5 1 -2 -2 0 2 1 3 -0 -1 -1 -2 -1 -1
11 11 11 10 10 8 11 12 12 9 8 11 8 10 10 7 5 7 6 5 6 4 5 5 5 3 0 2 2 2 2 3 1 1 2 3 1 1 -0 -2 -4 -4 -2 -2

GFSNGP_sfc_30mbdewp_081.txt.gz
Dewpoint
27 28 28 28 28 28 28 30 29 26 33 35 41 40 41 44 45 44 44 45 47 48 50 51 52 53 54 54 55 54 54 54 54 55 55 55 55 55 55 55 54 53 52 50
24 24 26 26 23 26 29 31 31 31 32 40 44 44 44 44 43 42 42 42 43 45 45 46 46 47 47 48 50 55 55 54 54 54 54 54 54 54 55 54 54 54 54 54
20 22 23 18 29 31 32 33 30 29 33 43 43 45 43 45 42 39 40 40 40 40 41 42 42 42 42 44 46 47 48 48 48 53 55 54 54 54 54 54 54 54 53 53
21 21 7 20 34 36 35 36 37 36 35 39 41 40 43 42 39 37 37 37 37 37 37 38 39 39 39 39 40 40 41 41 42 44 46 48 50 55 54 54 53 54 54 55
20 19 16 18 34 34 32 34 37 40 40 39 38 37 36 39 37 35 34 34 34 34 34 36 36 37 36 36 35 35 35 35 36 39 39 42 43 44 46 47 52 54 55 55
23 16 9 24 33 37 36 30 38 40 39 39 39 32 31 35 36 34 32 32 31 31 31 33 34 35 35 33 32 31 31 31 32 33 33 34 36 37 40 43 41 39 34 32
22 20 20 26 39 38 29 30 38 40 40 37 33 33 33 33 31 31 31 31 30 29 28 29 32 33 33 32 30 29 29 29 29 29 30 31 32 33 35 36 34 32 30 29
24 21 17 39 36 32 36 39 38 38 37 35 33 32 31 29 28 28 28 27 28 27 27 28 29 31 31 31 30 28 28 27 28 28 28 29 29 30 30 31 31 30 29 28
24 25 37 39 39 40 38 36 36 37 37 34 31 29 28 26 25 25 25 26 26 26 26 27 28 28 29 30 30 28 27 26 26 27 27 27 28 28 28 28 28 27 27 26
31 30 31 35 35 34 33 31 31 31 30 29 27 26 25 24 23 24 23 24 25 25 25 26 27 27 27 29 28 28 26 25 25 25 25 26 27 27 27 27 26 26 26 25
30 32 32 31 31 32 31 29 26 26 26 26 25 24 23 22 22 23 22 23 23 24 24 24 25 25 26 27 27 26 26 25 24 24 24 23 25 26 25 27 28 26 26 27
26 30 29 28 30 30 27 25 24 23 22 23 23 22 21 21 21 20 20 20 20 22 22 23 23 24 25 25 25 25 24 24 24 24 23 22 21 21 24 24 24 25 25 24
28 31 31 30 29 27 24 23 22 21 21 21 21 21 20 19 19 19 18 18 18 19 20 21 21 22 23 24 23 23 23 22 22 22 22 21 20 19 17 18 20 21 21 22
31 32 27 30 27 24 22 21 21 20 20 19 18 17 17 16 16 16 16 17 17 17 18 18 19 20 22 23 22 21 20 20 19 18 18 17 17 16 16 15 14 14 17 19
28 25 25 26 25 24 22 21 19 19 18 17 16 16 15 14 13 13 15 15 15 15 15 16 17 18 21 21 20 20 19 18 17 16 16 16 15 15 14 13 13 12 12 13
25 24 22 21 21 21 21 20 19 17 16 16 14 14 14 13 13 12 13 12 11 11 13 14 15 17 19 18 18 17 17 18 17 16 15 14 14 13 12 11 10 10 10 10
20 20 20 18 18 18 17 18 17 16 16 15 15 14 13 12 11 11 11 10 10 10 11 12 13 14 16 16 17 17 16 15 16 16 15 15 14 12 11 10 9 8 7 9
20 20 20 18 17 16 15 15 15 15 14 13 11 10 9 9 8 8 7 7 7 8 9 11 13 12 14 14 15 14 15 15 14 13 13 12 11 10 9 8 8 7 6 5
18 18 17 17 16 15 14 14 13 12 11 10 8 8 7 7 6 6 5 5 5 6 8 10 13 11 11 14 13 12 12 11 11 11 11 9 9 9 8 7 6 5 5 4
15 15 14 14 13 13 12 12 11 10 10 9 7 6 6 5 4 4 3 4 5 7 9 10 11 11 10 9 10 9 8 8 8 7 6 6 5 5 5 5 5 4 3 2
11 11 11 11 10 10 10 9 9 9 7 6 6 5 5 5 5 4 3 3 6 7 9 9 8 8 9 8 8 6 6 5 5 4 3 3 2 1 1 1 2 1 2 1
10 10 10 10 10 10 9 10 9 6 4 3 2 1 2 3 3 4 5 5 6 7 6 7 7 3 4 5 5 4 4 4 2 1 2 1 0 -0 -1 -1 -0 -1 -2 -3
11 10 10 10 10 10 9 8 7 8 8 7 6 5 5 5 5 3 1 5 6 7 7 3 3 3 1 1 1 2 2 2 2 1 -0 -1 -1 -2 -3 -3 -2 -3 -3 -4
12 11 11 10 10 9 7 7 7 7 8 7 4 4 6 3 3 7 6 2 1 4 4 3 3 1 2 0 -1 -2 -2 -0 -0 -1 -1 -2 -3 -4 -3 -4 -2 -4 -4 -4
13 12 12 12 12 13 10 10 8 8 9 7 8 9 8 6 2 4 4 5 5 1 -1 -2 -1 1 -0 1 -0 -2 -4 -5 -1 -1 -1 -1 -2 -3 -4 -4 -4 -3 -4 -6
15 15 15 14 13 14 15 14 12 12 11 9 7 5 3 3 4 4 4 5 6 6 4 0 -2 -2 -1 -0 1 1 -1 -2 -3 -1 -1 -1 -1 -2 -4 -4 -5 -7 -6 -5
13 11 10 10 10 12 11 11 10 10 10 9 7 5 5 5 5 6 5 6 3 3 3 3 3 4 3 3 2 0 0 0 -1 -2 -2 -2 -3 -2 -3 -4 -5 -7 -8 -7